KLM115 EHAM-KAUS

Flight info

Callsign KLM115
Flight time 10h 12m
Altitude 34000
Route BERGI L60 OTBED DCT ABLUC DCT OZRAT DCT WETFI DCT REVNU DCT RESNO/M083F350 NATA TUDEP/N0474F360 DCT AVEGU/N0475F380 DCT KEGTA DCT MSS DCT CFKHS DCT WWSHR Q29 CREEP DCT PXV J131 TXK DCT KF15E DCT WINDU SEWZY6
Aircraft A333/H-SDE3GHIJ2J3J5M1RVWXY/LB2D1

Departure

Time 2026-04-29 09:44
Airport Amsterdam Airport Schiphol (EHAM)

Arrival

Time 2026-04-29 19:57
Airport Austin Bergstrom International Airport (KAUS)
Time Latitude Longitude Altitude Speed Heading
2026-04-29 09:03 52.31226 4.77165 3 ft 0 kts 183°
2026-04-29 09:26 52.31228 4.77165 2 ft 2 kts 183°
2026-04-29 09:26 52.31253 4.77168 4 ft 4 kts 185°
2026-04-29 09:26 52.31280 4.77172 5 ft 4 kts 186°
2026-04-29 09:27 52.31307 4.77177 5 ft 4 kts 187°
2026-04-29 09:27 52.31334 4.77182 5 ft 4 kts 187°
2026-04-29 09:27 52.31350 4.77185 6 ft 1 kts 185°
2026-04-29 09:27 52.31326 4.77180 5 ft 4 kts 185°
2026-04-29 09:28 52.31305 4.77196 4 ft 4 kts 135°
2026-04-29 09:28 52.31294 4.77232 2 ft 4 kts 107°
2026-04-29 09:28 52.31292 4.77275 2 ft 4 kts 92°
2026-04-29 09:28 52.31291 4.77302 2 ft 1 kts 93°
2026-04-29 09:30 52.31291 4.77324 3 ft 4 kts 93°
2026-04-29 09:31 52.31289 4.77376 3 ft 6 kts 93°
2026-04-29 09:31 52.31285 4.77470 3 ft 10 kts 93°
2026-04-29 09:31 52.31283 4.77585 3 ft 9 kts 84°
2026-04-29 09:31 52.31320 4.77650 3 ft 7 kts 18°
2026-04-29 09:32 52.31386 4.77655 3 ft 12 kts 359°
2026-04-29 09:32 52.31477 4.77604 3 ft 16 kts 325°
2026-04-29 09:32 52.31553 4.77470 3 ft 16 kts 299°
2026-04-29 09:32 52.31574 4.77280 2 ft 19 kts 268°
2026-04-29 09:33 52.31566 4.77039 2 ft 23 kts 266°
2026-04-29 09:33 52.31557 4.76763 2 ft 25 kts 266°
2026-04-29 09:33 52.31547 4.76480 3 ft 25 kts 267°
2026-04-29 09:33 52.31537 4.76198 3 ft 25 kts 267°
2026-04-29 09:34 52.31528 4.75925 3 ft 24 kts 266°
2026-04-29 09:34 52.31519 4.75664 2 ft 21 kts 267°
2026-04-29 09:34 52.31511 4.75504 2 ft 10 kts 252°
2026-04-29 09:34 52.31461 4.75443 2 ft 9 kts 203°
2026-04-29 09:35 52.31426 4.75363 3 ft 11 kts 258°
2026-04-29 09:35 52.31418 4.75211 3 ft 16 kts 266°
2026-04-29 09:35 52.31411 4.74993 3 ft 22 kts 267°
2026-04-29 09:35 52.31403 4.74718 3 ft 25 kts 267°
2026-04-29 09:36 52.31395 4.74462 3 ft 16 kts 267°
2026-04-29 09:36 52.31399 4.74320 3 ft 10 kts 300°
2026-04-29 09:36 52.31436 4.74291 3 ft 10 kts 353°
2026-04-29 09:36 52.31521 4.74295 3 ft 15 kts
2026-04-29 09:37 52.31641 4.74307 3 ft 20 kts
2026-04-29 09:37 52.31786 4.74321 3 ft 21 kts
2026-04-29 09:37 52.31926 4.74334 3 ft 18 kts
2026-04-29 09:37 52.32011 4.74309 3 ft 11 kts 320°
2026-04-29 09:38 52.32031 4.74195 2 ft 11 kts 275°
2026-04-29 09:38 52.32036 4.74048 2 ft 15 kts 273°
2026-04-29 09:38 52.32043 4.73857 3 ft 18 kts 273°
2026-04-29 09:38 52.32051 4.73632 3 ft 20 kts 273°
2026-04-29 09:39 52.32063 4.73445 3 ft 16 kts 285°
2026-04-29 09:39 52.32130 4.73299 3 ft 18 kts 319°
2026-04-29 09:39 52.32235 4.73151 3 ft 22 kts 320°
2026-04-29 09:39 52.32359 4.72977 3 ft 25 kts 319°
2026-04-29 09:40 52.32494 4.72788 3 ft 26 kts 319°
2026-04-29 09:40 52.32636 4.72587 3 ft 28 kts 317°
2026-04-29 09:40 52.32771 4.72351 3 ft 29 kts 311°
2026-04-29 09:40 52.32907 4.72099 3 ft 30 kts 311°
2026-04-29 09:41 52.33041 4.71851 3 ft 27 kts 311°
2026-04-29 09:41 52.33131 4.71681 3 ft 14 kts 303°
2026-04-29 09:41 52.33139 4.71531 3 ft 13 kts 248°
2026-04-29 09:41 52.33072 4.71412 3 ft 16 kts 221°
2026-04-29 09:42 52.32982 4.71285 3 ft 17 kts 221°
2026-04-29 09:42 52.32895 4.71159 3 ft 16 kts 224°
2026-04-29 09:42 52.32863 4.71014 2 ft 13 kts 268°
2026-04-29 09:42 52.32876 4.70909 2 ft 7 kts 315°
2026-04-29 09:43 52.32926 4.70900 1 ft 11 kts
2026-04-29 09:43 52.33133 4.70919 -1 ft 57 kts
2026-04-29 09:43 52.33708 4.70971 4 ft 108 kts
2026-04-29 09:43 52.34612 4.71053 3 ft 151 kts
2026-04-29 09:44 52.35760 4.71125 276 ft 168 kts
2026-04-29 09:44 52.36925 4.71173 862 ft 167 kts
2026-04-29 09:44 52.38078 4.71243 1397 ft 167 kts
2026-04-29 09:44 52.39272 4.71356 1629 ft 177 kts 12°
2026-04-29 09:45 52.40535 4.71525 1819 ft 189 kts 12°
2026-04-29 09:45 52.41907 4.71648 2002 ft 207 kts
2026-04-29 09:45 52.43357 4.71084 2328 ft 225 kts 340°
2026-04-29 09:45 52.44676 4.69499 2547 ft 245 kts 323°
2026-04-29 09:46 52.45909 4.67507 2762 ft 262 kts 319°
2026-04-29 09:46 52.47221 4.65295 3095 ft 275 kts 319°
2026-04-29 09:46 52.48568 4.63036 3639 ft 278 kts 320°
2026-04-29 09:46 52.49929 4.60770 4237 ft 280 kts 320°
2026-04-29 09:47 52.51310 4.58519 4843 ft 280 kts 323°
2026-04-29 09:47 52.52870 4.56656 5437 ft 277 kts 334°
2026-04-29 09:47 52.54529 4.55052 6055 ft 277 kts 336°
2026-04-29 09:47 52.56213 4.53484 6680 ft 279 kts 336°
2026-04-29 09:48 52.57904 4.51911 7278 ft 281 kts 335°
2026-04-29 09:48 52.59609 4.50317 7880 ft 283 kts 335°
2026-04-29 09:48 52.61323 4.48710 8476 ft 285 kts 335°
2026-04-29 09:48 52.63049 4.47087 9087 ft 286 kts 334°
2026-04-29 09:49 52.64782 4.45454 9688 ft 288 kts 334°
2026-04-29 09:49 52.66527 4.43808 10281 ft 290 kts 334°
2026-04-29 09:49 52.68302 4.42132 10685 ft 299 kts 334°
2026-04-29 09:49 52.70151 4.40390 10880 ft 313 kts 334°
2026-04-29 09:50 52.72074 4.38536 11110 ft 329 kts 331°
2026-04-29 09:50 52.73914 4.36136 11312 ft 347 kts 317°
2026-04-29 09:50 52.75387 4.32852 11505 ft 366 kts 301°
2026-04-29 09:50 52.76472 4.28956 11710 ft 381 kts 294°
2026-04-29 09:51 52.77392 4.24784 11972 ft 391 kts 290°
2026-04-29 09:51 52.78225 4.20473 12397 ft 396 kts 289°
2026-04-29 09:51 52.79033 4.16098 12842 ft 400 kts 289°
2026-04-29 09:51 52.79852 4.11692 13281 ft 403 kts 289°
2026-04-29 09:52 52.80695 4.07249 13732 ft 407 kts 290°
2026-04-29 09:52 52.81562 4.02778 14190 ft 410 kts 290°
2026-04-29 09:52 52.82450 3.98274 14555 ft 414 kts 290°
2026-04-29 09:52 52.83350 3.93738 14969 ft 416 kts 290°
2026-04-29 09:53 52.84256 3.89186 15416 ft 417 kts 290°
2026-04-29 09:53 52.85164 3.84621 15852 ft 419 kts 290°
2026-04-29 09:53 52.86075 3.80025 16278 ft 421 kts 290°
2026-04-29 09:53 52.86986 3.75416 16697 ft 422 kts 290°
2026-04-29 09:54 52.87899 3.70781 17125 ft 424 kts 290°
2026-04-29 09:54 52.88812 3.66130 17547 ft 426 kts 290°
2026-04-29 09:54 52.89727 3.61458 17964 ft 428 kts 290°
2026-04-29 09:54 52.90633 3.56820 18348 ft 430 kts 290°
2026-04-29 09:55 52.91554 3.52096 18735 ft 432 kts 290°
2026-04-29 09:55 52.92491 3.47276 19002 ft 436 kts 290°
2026-04-29 09:55 52.93410 3.42537 19310 ft 438 kts 290°
2026-04-29 09:55 52.94341 3.37725 19643 ft 440 kts 290°
2026-04-29 09:56 52.95276 3.32879 19945 ft 443 kts 290°
2026-04-29 09:56 52.96214 3.28001 20259 ft 445 kts 290°
2026-04-29 09:56 52.97155 3.23102 20546 ft 448 kts 290°
2026-04-29 09:56 52.98101 3.18161 20824 ft 451 kts 290°
2026-04-29 09:57 52.99051 3.13186 21116 ft 453 kts 290°
2026-04-29 09:57 53.00003 3.08190 21409 ft 455 kts 290°
2026-04-29 09:57 53.00955 3.03173 21716 ft 458 kts 290°
2026-04-29 09:57 53.01915 2.98108 21953 ft 461 kts 290°
2026-04-29 09:58 53.02877 2.93014 22238 ft 463 kts 290°
2026-04-29 09:58 53.03842 2.87892 22515 ft 465 kts 290°
2026-04-29 09:58 53.04808 2.82751 22801 ft 468 kts 289°
2026-04-29 09:58 53.05777 2.77578 23083 ft 470 kts 289°
2026-04-29 09:59 53.06748 2.72379 23360 ft 472 kts 289°
2026-04-29 09:59 53.07722 2.67152 23623 ft 474 kts 289°
2026-04-29 09:59 53.08698 2.61902 23898 ft 476 kts 289°
2026-04-29 09:59 53.09676 2.56623 24147 ft 479 kts 289°
2026-04-29 10:00 53.10579 2.51280 24346 ft 482 kts 284°
2026-04-29 10:00 53.11202 2.45785 24565 ft 485 kts 281°
2026-04-29 10:00 53.11736 2.40232 24803 ft 486 kts 280°
2026-04-29 10:00 53.12215 2.34662 25031 ft 488 kts 279°
2026-04-29 10:01 53.12668 2.29047 25261 ft 489 kts 279°
2026-04-29 10:01 53.13111 2.23415 25493 ft 491 kts 279°
2026-04-29 10:01 53.13552 2.17773 25723 ft 492 kts 279°
2026-04-29 10:01 53.13995 2.12111 25938 ft 494 kts 279°
2026-04-29 10:02 53.14442 2.06424 26162 ft 495 kts 279°
2026-04-29 10:02 53.14890 2.00732 26364 ft 497 kts 278°
2026-04-29 10:02 53.15340 1.95009 26567 ft 499 kts 278°
2026-04-29 10:02 53.15789 1.89273 26777 ft 500 kts 278°
2026-04-29 10:03 53.16237 1.83520 26987 ft 502 kts 278°
2026-04-29 10:03 53.16683 1.77748 27207 ft 503 kts 278°
2026-04-29 10:03 53.17128 1.71954 27397 ft 505 kts 278°
2026-04-29 10:03 53.17571 1.66147 27595 ft 506 kts 278°
2026-04-29 10:04 53.18007 1.60397 27783 ft 507 kts 278°
2026-04-29 10:04 53.18452 1.54477 27984 ft 509 kts 278°
2026-04-29 10:04 53.18884 1.48689 28148 ft 511 kts 278°
2026-04-29 10:04 53.19321 1.42806 28318 ft 512 kts 278°
2026-04-29 10:05 53.19756 1.36899 28508 ft 514 kts 278°
2026-04-29 10:05 53.20189 1.30982 28702 ft 515 kts 278°
2026-04-29 10:05 53.20621 1.25044 28878 ft 516 kts 278°
2026-04-29 10:05 53.21051 1.19091 29055 ft 518 kts 277°
2026-04-29 10:06 53.21478 1.13123 29233 ft 519 kts 277°
2026-04-29 10:06 53.21903 1.07149 29504 ft 518 kts 277°
2026-04-29 10:06 53.22324 1.01188 29764 ft 517 kts 277°
2026-04-29 10:06 53.22742 0.95227 29950 ft 518 kts 277°
2026-04-29 10:07 53.23158 0.89242 30158 ft 519 kts 277°
2026-04-29 10:07 53.23571 0.83271 30426 ft 518 kts 277°
2026-04-29 10:07 53.23980 0.77305 30645 ft 517 kts 277°
2026-04-29 10:07 53.24385 0.71347 30843 ft 517 kts 277°
2026-04-29 10:08 53.24788 0.65380 31032 ft 517 kts 277°
2026-04-29 10:08 53.25189 0.59410 31203 ft 517 kts 277°
2026-04-29 10:08 53.25585 0.53452 31412 ft 516 kts 277°
2026-04-29 10:08 53.25979 0.47491 31608 ft 516 kts 277°
2026-04-29 10:09 53.26370 0.41522 31718 ft 518 kts 277°
2026-04-29 10:09 53.26758 0.35552 31875 ft 518 kts 277°
2026-04-29 10:09 53.27143 0.29573 32068 ft 517 kts 277°
2026-04-29 10:09 53.27525 0.23604 32253 ft 517 kts 277°
2026-04-29 10:10 53.27904 0.17633 32436 ft 517 kts 277°
2026-04-29 10:10 53.28280 0.11656 32609 ft 517 kts 277°
2026-04-29 10:10 53.28665 0.05684 32788 ft 516 kts 279°
2026-04-29 10:10 53.29306 -0.00205 32954 ft 515 kts 283°
2026-04-29 10:11 53.30023 -0.06071 33082 ft 516 kts 283°
2026-04-29 10:11 53.30778 -0.11948 33182 ft 517 kts 284°
2026-04-29 10:11 53.31548 -0.17811 33340 ft 517 kts 284°
2026-04-29 10:11 53.32324 -0.23677 33516 ft 516 kts 284°
2026-04-29 10:12 53.33097 -0.29536 33661 ft 516 kts 284°
2026-04-29 10:12 53.33865 -0.35402 33819 ft 516 kts 284°
2026-04-29 10:12 53.34627 -0.41264 33961 ft 516 kts 284°
2026-04-29 10:12 53.35384 -0.47125 34107 ft 516 kts 284°
2026-04-29 10:13 53.36136 -0.52993 34247 ft 516 kts 284°
2026-04-29 10:13 53.36885 -0.58863 34394 ft 515 kts 284°
2026-04-29 10:13 53.37630 -0.64732 34523 ft 515 kts 284°
2026-04-29 10:13 53.38372 -0.70603 34638 ft 515 kts 283°
2026-04-29 10:14 53.39110 -0.76469 34760 ft 514 kts 283°
2026-04-29 10:14 53.39844 -0.82325 34890 ft 514 kts 283°
2026-04-29 10:14 53.40576 -0.88186 35006 ft 514 kts 283°
2026-04-29 10:14 53.41304 -0.94038 35112 ft 513 kts 283°
2026-04-29 10:15 53.42029 -0.99896 35240 ft 513 kts 283°
2026-04-29 10:15 53.42751 -1.05753 35339 ft 513 kts 283°
2026-04-29 10:15 53.44189 -1.17492 35451 ft 514 kts 283°
2026-04-29 10:16 53.44905 -1.23373 35593 ft 514 kts 283°
2026-04-29 10:16 53.45376 -1.27259 35675 ft 514 kts 283°
2026-04-29 10:16 53.46324 -1.35115 35816 ft 513 kts 283°
2026-04-29 10:16 53.47029 -1.40980 35926 ft 513 kts 283°
2026-04-29 10:17 53.48427 -1.52696 36109 ft 512 kts 283°
2026-04-29 10:17 53.49818 -1.64457 36143 ft 515 kts 282°
2026-04-29 10:18 53.51203 -1.76276 36312 ft 515 kts 282°
2026-04-29 10:18 53.52576 -1.88100 36401 ft 517 kts 282°
2026-04-29 10:19 53.53941 -1.99965 36408 ft 517 kts 282°
2026-04-29 10:19 53.55293 -2.11819 36405 ft 516 kts 282°
2026-04-29 10:20 53.56407 -2.21677 36402 ft 516 kts 282°
2026-04-29 10:20 53.57736 -2.33538 36401 ft 516 kts 282°
2026-04-29 10:21 53.59053 -2.45401 36395 ft 516 kts 282°
2026-04-29 10:21 53.60570 -2.59211 36397 ft 516 kts 281°
2026-04-29 10:22 53.61653 -2.69163 36397 ft 516 kts 281°
2026-04-29 10:22 53.62937 -2.81076 36398 ft 517 kts 281°
2026-04-29 10:23 53.64210 -2.92999 36400 ft 517 kts 281°
2026-04-29 10:23 53.65471 -3.04926 36401 ft 517 kts 281°
2026-04-29 10:24 53.66720 -3.16863 36405 ft 517 kts 281°
2026-04-29 10:24 53.67959 -3.28818 36403 ft 518 kts 281°
2026-04-29 10:25 53.69189 -3.40809 36385 ft 519 kts 281°
2026-04-29 10:25 53.70402 -3.52769 36404 ft 516 kts 281°
2026-04-29 10:26 53.71600 -3.64697 36420 ft 514 kts 281°
2026-04-29 10:26 53.72787 -3.76637 36398 ft 517 kts 281°
2026-04-29 10:27 53.74558 -3.94694 36396 ft 521 kts 281°
2026-04-29 10:28 53.75718 -4.06681 36390 ft 520 kts 280°
2026-04-29 10:28 53.76872 -4.18746 36393 ft 520 kts 280°
2026-04-29 10:29 53.78024 -4.30915 36392 ft 521 kts 280°
2026-04-29 10:29 53.79157 -4.43021 36380 ft 522 kts 280°
2026-04-29 10:30 53.80018 -4.55121 36381 ft 522 kts 275°
2026-04-29 10:30 53.80508 -4.67458 36394 ft 522 kts 274°
2026-04-29 10:31 53.80907 -4.79649 36391 ft 522 kts 274°
2026-04-29 10:31 53.81289 -4.91910 36408 ft 522 kts 274°
2026-04-29 10:32 53.81669 -5.04261 36407 ft 522 kts 274°
2026-04-29 10:32 53.82038 -5.16529 36408 ft 522 kts 273°
2026-04-29 10:33 53.82394 -5.28719 36406 ft 522 kts 273°
2026-04-29 10:33 53.82739 -5.40983 36413 ft 522 kts 273°
2026-04-29 10:34 53.83588 -5.53132 36418 ft 520 kts 284°
2026-04-29 10:34 53.85323 -5.65098 36415 ft 520 kts 286°
2026-04-29 10:35 53.87197 -5.76907 36420 ft 518 kts 287°
2026-04-29 10:35 53.89070 -5.88680 36411 ft 517 kts 287°
2026-04-29 10:36 53.90900 -6.00378 36422 ft 517 kts 286°
2026-04-29 10:36 53.92720 -6.12173 36415 ft 517 kts 286°
2026-04-29 10:37 53.94525 -6.23978 36406 ft 517 kts 286°
2026-04-29 10:37 53.96318 -6.35792 36403 ft 517 kts 286°
2026-04-29 10:38 53.98108 -6.47657 36408 ft 520 kts 286°
2026-04-29 10:38 53.99890 -6.59564 36417 ft 520 kts 285°
2026-04-29 10:39 54.01659 -6.71479 36401 ft 520 kts 285°
2026-04-29 10:39 54.03429 -6.83484 36391 ft 520 kts 285°
2026-04-29 10:40 54.05164 -6.95342 36390 ft 519 kts 285°
2026-04-29 10:40 54.06890 -7.07233 36388 ft 516 kts 285°
2026-04-29 10:41 54.08600 -7.19102 36393 ft 516 kts 285°
2026-04-29 10:41 54.10298 -7.30972 36385 ft 516 kts 285°
2026-04-29 10:42 54.11984 -7.42851 36382 ft 516 kts 285°
2026-04-29 10:42 54.13658 -7.54742 36382 ft 515 kts 285°
2026-04-29 10:43 54.15319 -7.66628 36374 ft 515 kts 284°
2026-04-29 10:43 54.16966 -7.78516 36375 ft 515 kts 284°
2026-04-29 10:44 54.18604 -7.90428 36367 ft 515 kts 284°
2026-04-29 10:44 54.20230 -8.02347 36372 ft 515 kts 284°
2026-04-29 10:45 54.21842 -8.14256 36363 ft 515 kts 284°
2026-04-29 10:45 54.23439 -8.26162 36361 ft 513 kts 284°
2026-04-29 10:46 54.25019 -8.38025 36356 ft 511 kts 284°
2026-04-29 10:46 54.26585 -8.49885 36373 ft 511 kts 284°
2026-04-29 10:47 54.28139 -8.61745 36375 ft 511 kts 284°
2026-04-29 10:47 54.29682 -8.73623 36374 ft 511 kts 283°
2026-04-29 10:48 54.31212 -8.85502 36370 ft 511 kts 283°
2026-04-29 10:48 54.32731 -8.97395 36368 ft 511 kts 283°
2026-04-29 10:49 54.34240 -9.09303 36369 ft 511 kts 283°
2026-04-29 10:49 54.35737 -9.21222 36360 ft 511 kts 283°
2026-04-29 10:50 54.37222 -9.33149 36362 ft 512 kts 283°
2026-04-29 10:50 54.38695 -9.45086 36356 ft 511 kts 283°
2026-04-29 10:51 54.40143 -9.56918 36369 ft 508 kts 282°
2026-04-29 10:51 54.41580 -9.68768 36367 ft 507 kts 282°
2026-04-29 10:52 54.43000 -9.80582 36370 ft 504 kts 282°
2026-04-29 10:52 54.44407 -9.92381 36374 ft 504 kts 282°
2026-04-29 10:53 54.45802 -10.04194 36382 ft 504 kts 282°
2026-04-29 10:53 54.47215 -10.15988 36380 ft 504 kts 283°
2026-04-29 10:54 54.48738 -10.27754 36378 ft 504 kts 283°
2026-04-29 10:54 54.50277 -10.39517 36373 ft 504 kts 283°
2026-04-29 10:55 54.51796 -10.51291 36381 ft 504 kts 283°
2026-04-29 10:55 54.53293 -10.63073 36381 ft 504 kts 283°
2026-04-29 10:56 54.54776 -10.74848 36382 ft 501 kts 283°
2026-04-29 10:56 54.56241 -10.86536 36371 ft 498 kts 282°
2026-04-29 10:57 54.57673 -10.98186 36378 ft 496 kts 282°
2026-04-29 10:57 54.59097 -11.09827 36381 ft 496 kts 282°
2026-04-29 10:58 54.60512 -11.21472 36372 ft 496 kts 282°
2026-04-29 10:58 54.61917 -11.33123 36377 ft 496 kts 282°
2026-04-29 10:59 54.63312 -11.44796 36375 ft 496 kts 282°
2026-04-29 10:59 54.64694 -11.56467 36376 ft 496 kts 282°
2026-04-29 11:00 54.66067 -11.68154 36372 ft 496 kts 282°
2026-04-29 11:00 54.67418 -11.79771 36375 ft 497 kts 282°
2026-04-29 11:01 54.68768 -11.91471 36375 ft 496 kts 281°
2026-04-29 11:01 54.70107 -12.03123 36382 ft 492 kts 281°
2026-04-29 11:02 54.71416 -12.14709 36369 ft 491 kts 281°
2026-04-29 11:02 54.72713 -12.26298 36368 ft 491 kts 281°
2026-04-29 11:03 54.74002 -12.37899 36382 ft 491 kts 281°
2026-04-29 11:03 54.75280 -12.49500 36365 ft 491 kts 281°
2026-04-29 11:04 54.76548 -12.61112 36365 ft 490 kts 280°
2026-04-29 11:04 54.77799 -12.72685 36359 ft 489 kts 280°
2026-04-29 11:05 54.79041 -12.84274 36362 ft 489 kts 280°
2026-04-29 11:05 54.80270 -12.95861 36361 ft 489 kts 280°
2026-04-29 11:06 54.81283 -13.05491 36358 ft 489 kts 280°
2026-04-29 11:06 54.82491 -13.17080 36374 ft 487 kts 279°
2026-04-29 11:07 54.83680 -13.28582 36352 ft 483 kts 279°
2026-04-29 11:07 54.84851 -13.40047 36354 ft 483 kts 279°
2026-04-29 11:08 54.86013 -13.51532 36353 ft 483 kts 279°
2026-04-29 11:08 54.87163 -13.63016 36348 ft 483 kts 279°
2026-04-29 11:09 54.88304 -13.74507 36357 ft 483 kts 278°
2026-04-29 11:09 54.89432 -13.85990 36345 ft 482 kts 278°
2026-04-29 11:10 54.90546 -13.97458 36340 ft 481 kts 278°
2026-04-29 11:10 54.91651 -14.08941 36342 ft 482 kts 278°
2026-04-29 11:11 54.92745 -14.20427 36344 ft 482 kts 278°
2026-04-29 11:11 54.93829 -14.31916 36344 ft 481 kts 278°
2026-04-29 11:12 54.94893 -14.43354 36341 ft 477 kts 277°
2026-04-29 11:12 54.95943 -14.54718 36333 ft 475 kts 277°
2026-04-29 11:13 54.96979 -14.66067 36340 ft 475 kts 277°
2026-04-29 11:13 54.98005 -14.77430 36331 ft 475 kts 277°
2026-04-29 11:14 54.99020 -14.88794 36341 ft 475 kts 277°
2026-04-29 11:14 54.99920 -15.00174 36342 ft 472 kts 271°
2026-04-29 11:15 55.00261 -15.11571 36326 ft 471 kts 270°
2026-04-29 11:15 55.00483 -15.22974 36335 ft 471 kts 269°
2026-04-29 11:16 55.00674 -15.34383 36330 ft 471 kts 269°
2026-04-29 11:16 55.00861 -15.45711 36331 ft 471 kts 269°
2026-04-29 11:17 55.01045 -15.57102 36331 ft 470 kts 269°
2026-04-29 11:17 55.01220 -15.68479 36331 ft 469 kts 269°
2026-04-29 11:18 55.01384 -15.79843 36329 ft 469 kts 269°
2026-04-29 11:18 55.01538 -15.91207 36329 ft 469 kts 269°
2026-04-29 11:19 55.01680 -16.02580 36324 ft 469 kts 269°
2026-04-29 11:19 55.01813 -16.13934 36322 ft 468 kts 268°
2026-04-29 11:20 55.01934 -16.25259 36319 ft 467 kts 268°
2026-04-29 11:20 55.02044 -16.36571 36319 ft 467 kts 268°
2026-04-29 11:21 55.02144 -16.47875 36318 ft 467 kts 268°
2026-04-29 11:21 55.02233 -16.59184 36316 ft 467 kts 268°
2026-04-29 11:22 55.02312 -16.70501 36312 ft 467 kts 268°
2026-04-29 11:22 55.02380 -16.81801 36313 ft 467 kts 268°
2026-04-29 11:23 55.02438 -16.93109 36314 ft 467 kts 268°
2026-04-29 11:23 55.02486 -17.04421 36314 ft 466 kts 268°
2026-04-29 11:24 55.02523 -17.15720 36309 ft 466 kts 267°
2026-04-29 11:24 55.02549 -17.27029 36308 ft 466 kts 267°
2026-04-29 11:25 55.02565 -17.38330 36305 ft 466 kts 267°
2026-04-29 11:25 55.02571 -17.49629 36306 ft 466 kts 267°
2026-04-29 11:26 55.02559 -17.66580 36299 ft 466 kts 267°
2026-04-29 11:26 55.02539 -17.77846 36303 ft 464 kts 267°
2026-04-29 11:27 55.02508 -17.89092 36300 ft 464 kts 267°
2026-04-29 11:27 55.02467 -18.00340 36296 ft 464 kts 267°
2026-04-29 11:28 55.02415 -18.11570 36299 ft 464 kts 267°
2026-04-29 11:28 55.02353 -18.22815 36290 ft 464 kts 267°
2026-04-29 11:29 55.02281 -18.34055 36301 ft 464 kts 267°
2026-04-29 11:29 55.02199 -18.45216 36291 ft 463 kts 266°
2026-04-29 11:30 55.02106 -18.56440 36291 ft 463 kts 266°
2026-04-29 11:30 55.02003 -18.67674 36286 ft 463 kts 266°
2026-04-29 11:31 55.01889 -18.78899 36286 ft 463 kts 266°
2026-04-29 11:31 55.01766 -18.90123 36292 ft 463 kts 266°
2026-04-29 11:32 55.01632 -19.01346 36282 ft 462 kts 266°
2026-04-29 11:32 55.01488 -19.12539 36276 ft 462 kts 266°
2026-04-29 11:33 55.01333 -19.23729 36272 ft 462 kts 266°
2026-04-29 11:33 55.01168 -19.34928 36271 ft 462 kts 266°
2026-04-29 11:34 55.00993 -19.46117 36284 ft 462 kts 265°
2026-04-29 11:34 55.00809 -19.57277 36270 ft 459 kts 265°
2026-04-29 11:35 55.00616 -19.68361 36266 ft 458 kts 265°
2026-04-29 11:35 55.00412 -19.79441 36264 ft 458 kts 265°
2026-04-29 11:36 55.00198 -19.90521 36257 ft 458 kts 265°
2026-04-29 11:36 55.00133 -20.01606 36258 ft 459 kts 270°
2026-04-29 11:37 55.00500 -20.12714 36252 ft 459 kts 270°
2026-04-29 11:37 55.00942 -20.23790 36252 ft 458 kts 271°
2026-04-29 11:38 55.01385 -20.34851 36248 ft 458 kts 270°
2026-04-29 11:38 55.01809 -20.45908 36244 ft 458 kts 270°
2026-04-29 11:39 55.02217 -20.56973 36239 ft 458 kts 270°
2026-04-29 11:39 55.02614 -20.68040 36249 ft 457 kts 270°
2026-04-29 11:40 55.02999 -20.79001 36235 ft 455 kts 270°
2026-04-29 11:40 55.03374 -20.90014 36253 ft 455 kts 270°
2026-04-29 11:41 55.03739 -21.00999 36227 ft 453 kts 269°
2026-04-29 11:41 55.04093 -21.11952 36227 ft 452 kts 269°
2026-04-29 11:42 55.04436 -21.22904 36225 ft 452 kts 269°
2026-04-29 11:42 55.04770 -21.33843 36224 ft 451 kts 269°
2026-04-29 11:43 55.05093 -21.44770 36222 ft 451 kts 269°
2026-04-29 11:43 55.05406 -21.55679 36213 ft 450 kts 269°
2026-04-29 11:44 55.05709 -21.66587 36211 ft 450 kts 269°
2026-04-29 11:44 55.06003 -21.77509 36208 ft 450 kts 268°
2026-04-29 11:45 55.06287 -21.88422 36217 ft 450 kts 268°
2026-04-29 11:45 55.06561 -21.99326 36197 ft 449 kts 268°
2026-04-29 11:46 55.06824 -22.10203 36197 ft 449 kts 268°
2026-04-29 11:46 55.07077 -22.21076 36224 ft 449 kts 268°
2026-04-29 11:47 55.07322 -22.31937 36194 ft 447 kts 267°
2026-04-29 11:47 55.07554 -22.42754 36198 ft 446 kts 267°
2026-04-29 11:48 55.07777 -22.53575 36177 ft 445 kts 267°
2026-04-29 11:48 55.07991 -22.64363 36178 ft 445 kts 267°
2026-04-29 11:49 55.08194 -22.75142 36178 ft 444 kts 266°
2026-04-29 11:49 55.08387 -22.85927 36178 ft 444 kts 266°
2026-04-29 11:50 55.08572 -22.96713 36170 ft 444 kts 266°
2026-04-29 11:50 55.08746 -23.07491 36170 ft 444 kts 266°
2026-04-29 11:51 55.08912 -23.18273 36164 ft 444 kts 266°
2026-04-29 11:51 55.09042 -23.27237 36165 ft 444 kts 266°
2026-04-29 11:52 55.09190 -23.38016 36164 ft 444 kts 266°
2026-04-29 11:52 55.09328 -23.48793 36187 ft 444 kts 266°
2026-04-29 11:53 55.09457 -23.59553 36156 ft 441 kts 265°
2026-04-29 11:53 55.09577 -23.70240 36161 ft 440 kts 265°
2026-04-29 11:54 55.09685 -23.80898 36154 ft 438 kts 265°
2026-04-29 11:54 55.09783 -23.91530 36153 ft 438 kts 265°
2026-04-29 11:55 55.09872 -24.02166 36145 ft 438 kts 264°
2026-04-29 11:55 55.09952 -24.12799 36146 ft 438 kts 264°
2026-04-29 11:56 55.10024 -24.23429 36143 ft 438 kts 264°
2026-04-29 11:56 55.10086 -24.34055 36144 ft 437 kts 264°
2026-04-29 11:57 55.10139 -24.44669 36142 ft 437 kts 264°
2026-04-29 11:57 55.10182 -24.55282 36141 ft 437 kts 264°
2026-04-29 11:58 55.10216 -24.65884 36141 ft 437 kts 264°
2026-04-29 11:58 55.10241 -24.76495 36142 ft 437 kts 263°
2026-04-29 11:59 55.10258 -24.87084 36171 ft 435 kts 263°
2026-04-29 11:59 55.10266 -24.97632 36140 ft 434 kts 262°
2026-04-29 12:00 55.10263 -25.08084 36142 ft 433 kts 262°
2026-04-29 12:00 55.10250 -25.18677 36143 ft 433 kts 262°
2026-04-29 12:01 55.10229 -25.29132 36142 ft 433 kts 262°
2026-04-29 12:01 55.10198 -25.39654 36142 ft 433 kts 262°
2026-04-29 12:02 55.10160 -25.50180 36158 ft 433 kts 262°
2026-04-29 12:02 55.10113 -25.60698 36150 ft 433 kts 261°
2026-04-29 12:03 55.10057 -25.71196 36143 ft 432 kts 261°
2026-04-29 12:03 55.09991 -25.81702 36149 ft 433 kts 261°
2026-04-29 12:04 55.09915 -25.92201 36154 ft 432 kts 261°
2026-04-29 12:04 55.09831 -26.02698 36159 ft 433 kts 261°
2026-04-29 12:05 55.09734 -26.13193 36176 ft 431 kts 261°
2026-04-29 12:05 55.09680 -26.23650 36168 ft 430 kts 260°
2026-04-29 12:06 55.09546 -26.34077 36153 ft 430 kts 260°
2026-04-29 12:06 55.09411 -26.44501 36158 ft 430 kts 260°
2026-04-29 12:07 55.09279 -26.54936 36167 ft 430 kts 260°
2026-04-29 12:07 55.09143 -26.65363 36161 ft 430 kts 260°
2026-04-29 12:08 55.08998 -26.75798 36174 ft 430 kts 260°
2026-04-29 12:08 55.08842 -26.86241 36177 ft 431 kts 260°
2026-04-29 12:09 55.08679 -26.96695 36178 ft 431 kts 259°
2026-04-29 12:09 55.08506 -27.07143 36178 ft 431 kts 259°
2026-04-29 12:10 55.08324 -27.17586 36186 ft 431 kts 259°
2026-04-29 12:10 55.08134 -27.28030 36186 ft 430 kts 259°
2026-04-29 12:11 55.07934 -27.38473 36228 ft 431 kts 259°
2026-04-29 12:11 55.07724 -27.48938 36185 ft 432 kts 259°
2026-04-29 12:12 55.07507 -27.59408 36183 ft 432 kts 259°
2026-04-29 12:12 55.07280 -27.69868 36193 ft 432 kts 259°
2026-04-29 12:13 55.07045 -27.80330 36196 ft 431 kts 259°
2026-04-29 12:13 55.06800 -27.90787 36215 ft 432 kts 259°
2026-04-29 12:14 55.06546 -28.01193 36198 ft 433 kts 259°
2026-04-29 12:14 55.06282 -28.11678 36198 ft 433 kts 259°
2026-04-29 12:15 55.06009 -28.22165 36197 ft 433 kts 259°
2026-04-29 12:15 55.05728 -28.32643 36205 ft 432 kts 259°
2026-04-29 12:16 55.05438 -28.43118 36203 ft 432 kts 259°
2026-04-29 12:16 55.05139 -28.53593 36208 ft 433 kts 259°
2026-04-29 12:17 55.04829 -28.64089 36203 ft 434 kts 259°
2026-04-29 12:17 55.04510 -28.74602 36203 ft 435 kts 259°
2026-04-29 12:18 55.04181 -28.85155 36206 ft 436 kts 259°
2026-04-29 12:18 55.03844 -28.95703 36205 ft 436 kts 259°
2026-04-29 12:19 55.03497 -29.06245 36208 ft 436 kts 259°
2026-04-29 12:19 55.03141 -29.16789 36206 ft 436 kts 259°
2026-04-29 12:20 55.02776 -29.27329 36207 ft 436 kts 259°
2026-04-29 12:20 55.02401 -29.37867 36209 ft 435 kts 259°
2026-04-29 12:21 55.02018 -29.48399 36210 ft 435 kts 259°
2026-04-29 12:21 55.01626 -29.58923 36216 ft 435 kts 259°
2026-04-29 12:22 55.01224 -29.69445 36236 ft 435 kts 259°
2026-04-29 12:22 55.00812 -29.79985 36213 ft 437 kts 259°
2026-04-29 12:23 55.00389 -29.90583 36214 ft 438 kts 259°
2026-04-29 12:23 54.99950 -30.01099 36217 ft 438 kts 259°
2026-04-29 12:24 54.99376 -30.11643 36216 ft 437 kts 258°
2026-04-29 12:24 54.98742 -30.22157 36219 ft 437 kts 258°
2026-04-29 12:25 54.98103 -30.32671 36223 ft 437 kts 258°
2026-04-29 12:26 54.97143 -30.48487 36221 ft 438 kts 258°
2026-04-29 12:26 54.96496 -30.59031 36221 ft 438 kts 258°
2026-04-29 12:27 54.95839 -30.69580 36222 ft 438 kts 258°
2026-04-29 12:27 54.95174 -30.80110 36225 ft 438 kts 258°
2026-04-29 12:28 54.94498 -30.90649 36223 ft 438 kts 258°
2026-04-29 12:28 54.93812 -31.01189 36221 ft 439 kts 258°
2026-04-29 12:29 54.93117 -31.11729 36234 ft 439 kts 258°
2026-04-29 12:29 54.92414 -31.22269 36226 ft 439 kts 258°
2026-04-29 12:30 54.91701 -31.32803 36249 ft 439 kts 258°
2026-04-29 12:30 54.90984 -31.43261 36232 ft 439 kts 258°
2026-04-29 12:31 54.90251 -31.53799 36233 ft 440 kts 258°
2026-04-29 12:31 54.89507 -31.64378 36236 ft 442 kts 258°
2026-04-29 12:32 54.88753 -31.74966 36234 ft 442 kts 258°
2026-04-29 12:32 54.87991 -31.85537 36238 ft 441 kts 258°
2026-04-29 12:33 54.87219 -31.96110 36239 ft 441 kts 258°
2026-04-29 12:33 54.86437 -32.06685 36244 ft 441 kts 258°
2026-04-29 12:34 54.85644 -32.17273 36240 ft 443 kts 258°
2026-04-29 12:34 54.84840 -32.27882 36245 ft 444 kts 258°
2026-04-29 12:35 54.84028 -32.38495 36243 ft 444 kts 258°
2026-04-29 12:35 54.83205 -32.49110 36243 ft 444 kts 258°
2026-04-29 12:36 54.82374 -32.59705 36247 ft 444 kts 258°
2026-04-29 12:36 54.81532 -32.70313 36278 ft 445 kts 259°
2026-04-29 12:37 54.80677 -32.80958 36250 ft 447 kts 259°
2026-04-29 12:37 54.79811 -32.91628 36253 ft 447 kts 259°
2026-04-29 12:38 54.78937 -33.02285 36258 ft 447 kts 259°
2026-04-29 12:38 54.78052 -33.12951 36255 ft 447 kts 259°
2026-04-29 12:39 54.77310 -33.21802 36259 ft 447 kts 259°
2026-04-29 12:39 54.76407 -33.32464 36245 ft 448 kts 259°
2026-04-29 12:40 54.75494 -33.43139 36257 ft 448 kts 259°
2026-04-29 12:40 54.74571 -33.53813 36253 ft 448 kts 259°
2026-04-29 12:41 54.73638 -33.64487 36251 ft 448 kts 259°
2026-04-29 12:41 54.72695 -33.75156 36259 ft 448 kts 259°
2026-04-29 12:42 54.71744 -33.85813 36264 ft 449 kts 259°
2026-04-29 12:42 54.70782 -33.96486 36269 ft 449 kts 259°
2026-04-29 12:43 54.69810 -34.07153 36267 ft 449 kts 260°
2026-04-29 12:43 54.68834 -34.17761 36262 ft 450 kts 260°
2026-04-29 12:44 54.67836 -34.28499 36262 ft 450 kts 259°
2026-04-29 12:44 54.66835 -34.39165 36256 ft 450 kts 260°
2026-04-29 12:45 54.65824 -34.49833 36262 ft 450 kts 260°
2026-04-29 12:45 54.64803 -34.60501 36260 ft 451 kts 260°
2026-04-29 12:46 54.63779 -34.71099 36260 ft 451 kts 260°
2026-04-29 12:46 54.62739 -34.81763 36265 ft 451 kts 260°
2026-04-29 12:47 54.61689 -34.92422 36263 ft 451 kts 260°
2026-04-29 12:47 54.60630 -35.03076 36265 ft 450 kts 259°
2026-04-29 12:48 54.59562 -35.13717 36267 ft 450 kts 259°
2026-04-29 12:48 54.58485 -35.24350 36266 ft 450 kts 259°
2026-04-29 12:49 54.57398 -35.34983 36271 ft 450 kts 259°
2026-04-29 12:49 54.56302 -35.45609 36276 ft 451 kts 259°
2026-04-29 12:50 54.55199 -35.56240 36270 ft 451 kts 260°
2026-04-29 12:50 54.54086 -35.66868 36271 ft 451 kts 260°
2026-04-29 12:51 54.52957 -35.77500 36272 ft 451 kts 260°
2026-04-29 12:51 54.51818 -35.88128 36274 ft 451 kts 260°
2026-04-29 12:52 54.50673 -35.98746 36275 ft 451 kts 260°
2026-04-29 12:52 54.49519 -36.09357 36262 ft 451 kts 261°
2026-04-29 12:53 54.48342 -36.20043 36288 ft 452 kts 261°
2026-04-29 12:53 54.47168 -36.30669 36287 ft 452 kts 261°
2026-04-29 12:54 54.45986 -36.41287 36278 ft 452 kts 261°
2026-04-29 12:54 54.44792 -36.51902 36287 ft 452 kts 261°
2026-04-29 12:55 54.43589 -36.62510 36285 ft 452 kts 261°
2026-04-29 12:55 54.42378 -36.73049 36297 ft 453 kts 261°
2026-04-29 12:56 54.41147 -36.83732 36291 ft 453 kts 262°
2026-04-29 12:56 54.39916 -36.94340 36289 ft 453 kts 261°
2026-04-29 12:57 54.38674 -37.04941 36286 ft 453 kts 261°
2026-04-29 12:57 54.37423 -37.15528 36281 ft 453 kts 261°
2026-04-29 12:58 54.36161 -37.26118 36288 ft 452 kts 262°
2026-04-29 12:58 54.34894 -37.36669 36292 ft 451 kts 262°
2026-04-29 12:59 54.33619 -37.47199 36293 ft 451 kts 262°
2026-04-29 12:59 54.32344 -37.57656 36293 ft 451 kts 261°
2026-04-29 13:00 54.31043 -37.68249 36294 ft 451 kts 261°
2026-04-29 13:00 54.29740 -37.78763 36286 ft 451 kts 262°
2026-04-29 13:01 54.28431 -37.89249 36296 ft 450 kts 262°
2026-04-29 13:01 54.27114 -37.99719 36300 ft 450 kts 262°
2026-04-29 13:02 54.25789 -38.10178 36304 ft 449 kts 262°
2026-04-29 13:02 54.24459 -38.20595 36302 ft 448 kts 262°
2026-04-29 13:03 54.23121 -38.31005 36300 ft 448 kts 262°
2026-04-29 13:03 54.21774 -38.41405 36300 ft 448 kts 262°
2026-04-29 13:04 54.20420 -38.51782 36304 ft 448 kts 262°
2026-04-29 13:04 54.19056 -38.62162 36299 ft 448 kts 262°
2026-04-29 13:05 54.17683 -38.72530 36302 ft 448 kts 262°
2026-04-29 13:05 54.16301 -38.82898 36305 ft 448 kts 261°
2026-04-29 13:06 54.14919 -38.93190 36306 ft 448 kts 262°
2026-04-29 13:06 54.13518 -39.03553 36304 ft 449 kts 261°
2026-04-29 13:07 54.12109 -39.13904 36309 ft 449 kts 261°
2026-04-29 13:07 54.10688 -39.24265 36308 ft 449 kts 261°
2026-04-29 13:08 54.09259 -39.34616 36310 ft 449 kts 261°
2026-04-29 13:08 54.07820 -39.44962 36283 ft 449 kts 262°
2026-04-29 13:09 54.06372 -39.55313 36307 ft 450 kts 262°
2026-04-29 13:09 54.04911 -39.65685 36307 ft 451 kts 261°
2026-04-29 13:10 54.03439 -39.76056 36311 ft 451 kts 261°
2026-04-29 13:10 54.01958 -39.86420 36304 ft 451 kts 261°
2026-04-29 13:11 54.00469 -39.96776 36303 ft 451 kts 261°
2026-04-29 13:11 53.98944 -40.07122 36309 ft 452 kts 261°
2026-04-29 13:12 53.97373 -40.17472 36305 ft 453 kts 261°
2026-04-29 13:12 53.95787 -40.27831 36306 ft 453 kts 261°
2026-04-29 13:13 53.94197 -40.38178 36306 ft 453 kts 261°
2026-04-29 13:13 53.92600 -40.48522 36306 ft 453 kts 260°
2026-04-29 13:14 53.90994 -40.58859 36305 ft 453 kts 260°
2026-04-29 13:14 53.89381 -40.69178 36309 ft 453 kts 260°
2026-04-29 13:15 53.87758 -40.79497 36308 ft 453 kts 260°
2026-04-29 13:15 53.86127 -40.89801 36306 ft 453 kts 260°
2026-04-29 13:16 53.84488 -41.00096 36302 ft 453 kts 260°
2026-04-29 13:16 53.82840 -41.10384 36301 ft 453 kts 260°
2026-04-29 13:17 53.81179 -41.20690 36304 ft 454 kts 260°
2026-04-29 13:17 53.79507 -41.30998 36306 ft 455 kts 260°
2026-04-29 13:18 53.77823 -41.41312 36304 ft 455 kts 260°
2026-04-29 13:18 53.76133 -41.51603 36307 ft 455 kts 260°
2026-04-29 13:19 53.74434 -41.61894 36299 ft 455 kts 260°
2026-04-29 13:19 53.72724 -41.72190 36309 ft 456 kts 260°
2026-04-29 13:20 53.71002 -41.82493 36308 ft 456 kts 259°
2026-04-29 13:20 53.69283 -41.92718 36307 ft 456 kts 259°
2026-04-29 13:21 53.67533 -42.03056 36306 ft 455 kts 260°
2026-04-29 13:21 53.65800 -42.13245 36282 ft 455 kts 260°
2026-04-29 13:22 53.64045 -42.23498 36307 ft 456 kts 260°
2026-04-29 13:22 53.62281 -42.33747 36304 ft 456 kts 259°
2026-04-29 13:23 53.60795 -42.42335 36306 ft 456 kts 259°
2026-04-29 13:23 53.59013 -42.52576 36305 ft 456 kts 259°
2026-04-29 13:24 53.57222 -42.62811 36305 ft 456 kts 259°
2026-04-29 13:24 53.55421 -42.73044 36310 ft 457 kts 259°
2026-04-29 13:25 53.53609 -42.83289 36311 ft 457 kts 259°
2026-04-29 13:25 53.50884 -42.98574 36308 ft 457 kts 259°
2026-04-29 13:26 53.49049 -43.08799 36307 ft 457 kts 259°
2026-04-29 13:26 53.47203 -43.19029 36287 ft 458 kts 259°
2026-04-29 13:27 53.45348 -43.29247 36304 ft 459 kts 259°
2026-04-29 13:27 53.43481 -43.39480 36312 ft 459 kts 259°
2026-04-29 13:28 53.41591 -43.49777 36305 ft 459 kts 259°
2026-04-29 13:28 53.39704 -43.59997 36308 ft 459 kts 259°
2026-04-29 13:29 53.37822 -43.70142 36287 ft 459 kts 259°
2026-04-29 13:29 53.35918 -43.80350 36314 ft 460 kts 259°
2026-04-29 13:30 53.33999 -43.90579 36310 ft 461 kts 258°
2026-04-29 13:30 53.32071 -44.00796 36315 ft 460 kts 258°
2026-04-29 13:31 53.30136 -44.10998 36314 ft 461 kts 258°
2026-04-29 13:31 53.28189 -44.21206 36286 ft 461 kts 258°
2026-04-29 13:32 53.26234 -44.31406 36317 ft 462 kts 258°
2026-04-29 13:32 53.24268 -44.41607 36314 ft 462 kts 258°
2026-04-29 13:33 53.22293 -44.51797 36312 ft 460 kts 258°
2026-04-29 13:33 53.20315 -44.61943 36319 ft 459 kts 258°
2026-04-29 13:34 53.18332 -44.72073 36291 ft 459 kts 258°
2026-04-29 13:34 53.16341 -44.82192 36318 ft 460 kts 257°
2026-04-29 13:35 53.14337 -44.92321 36317 ft 460 kts 257°
2026-04-29 13:35 53.12322 -45.02447 36311 ft 460 kts 257°
2026-04-29 13:36 53.10301 -45.12554 36314 ft 460 kts 257°
2026-04-29 13:36 53.08270 -45.22659 36318 ft 461 kts 257°
2026-04-29 13:37 53.06229 -45.32761 36317 ft 461 kts 257°
2026-04-29 13:37 53.04178 -45.42865 36317 ft 461 kts 257°
2026-04-29 13:38 53.02117 -45.52958 36314 ft 461 kts 257°
2026-04-29 13:38 53.00048 -45.63046 36314 ft 461 kts 257°
2026-04-29 13:39 52.97970 -45.73119 36314 ft 461 kts 257°
2026-04-29 13:39 52.95887 -45.83166 36314 ft 460 kts 257°
2026-04-29 13:40 52.93798 -45.93197 36311 ft 460 kts 257°
2026-04-29 13:40 52.91703 -46.03210 36311 ft 460 kts 256°
2026-04-29 13:41 52.89596 -46.13226 36311 ft 460 kts 256°
2026-04-29 13:41 52.87482 -46.23225 36311 ft 460 kts 256°
2026-04-29 13:42 52.85358 -46.33221 36315 ft 461 kts 256°
2026-04-29 13:42 52.83222 -46.43228 36308 ft 461 kts 256°
2026-04-29 13:43 52.81075 -46.53231 36311 ft 461 kts 256°
2026-04-29 13:43 52.78921 -46.63220 36317 ft 462 kts 256°
2026-04-29 13:44 52.76758 -46.73202 36284 ft 462 kts 256°
2026-04-29 13:44 52.74600 -46.83117 36313 ft 463 kts 255°
2026-04-29 13:45 52.72412 -46.93121 36313 ft 463 kts 255°
2026-04-29 13:45 52.70220 -47.03083 36314 ft 462 kts 255°
2026-04-29 13:46 52.68024 -47.13023 36311 ft 461 kts 255°
2026-04-29 13:46 52.65821 -47.22951 36283 ft 461 kts 255°
2026-04-29 13:47 52.63607 -47.32884 36323 ft 463 kts 255°
2026-04-29 13:47 52.61378 -47.42833 36302 ft 464 kts 255°
2026-04-29 13:48 52.59139 -47.52776 36319 ft 463 kts 255°
2026-04-29 13:48 52.56891 -47.62711 36303 ft 463 kts 255°
2026-04-29 13:49 52.54635 -47.72634 36302 ft 463 kts 254°
2026-04-29 13:49 52.52370 -47.82556 36317 ft 464 kts 254°
2026-04-29 13:50 52.50091 -47.92487 36315 ft 465 kts 254°
2026-04-29 13:50 52.47805 -48.02407 36313 ft 465 kts 254°
2026-04-29 13:51 52.45510 -48.12313 36314 ft 464 kts 254°
2026-04-29 13:51 52.43210 -48.22197 36300 ft 464 kts 254°
2026-04-29 13:52 52.40902 -48.32077 36311 ft 465 kts 253°
2026-04-29 13:52 52.38579 -48.41970 36317 ft 466 kts 253°
2026-04-29 13:53 52.36246 -48.51860 36316 ft 466 kts 253°
2026-04-29 13:53 52.33905 -48.61734 36320 ft 466 kts 253°
2026-04-29 13:54 52.31556 -48.71601 36312 ft 466 kts 253°
2026-04-29 13:54 52.29196 -48.81471 36317 ft 467 kts 253°
2026-04-29 13:55 52.26822 -48.91353 36315 ft 467 kts 253°
2026-04-29 13:55 52.24441 -49.01217 36316 ft 467 kts 253°
2026-04-29 13:56 52.22050 -49.11078 36316 ft 467 kts 253°
2026-04-29 13:56 52.19652 -49.20927 36316 ft 468 kts 252°
2026-04-29 13:57 52.17241 -49.30784 36317 ft 468 kts 252°
2026-04-29 13:57 52.15235 -49.38946 36319 ft 467 kts 252°
2026-04-29 13:58 52.12408 -49.50407 36319 ft 467 kts 252°
2026-04-29 13:58 52.09979 -49.60204 36317 ft 467 kts 252°
2026-04-29 13:59 52.07543 -49.69988 36310 ft 467 kts 252°
2026-04-29 13:59 52.05093 -49.79785 36326 ft 468 kts 252°
2026-04-29 14:00 52.02633 -49.89576 36310 ft 468 kts 251°
2026-04-29 14:00 52.00167 -49.99357 36329 ft 468 kts 252°
2026-04-29 14:01 51.97770 -50.09166 36312 ft 468 kts 252°
2026-04-29 14:01 51.95414 -50.19004 36313 ft 468 kts 252°
2026-04-29 14:02 51.93045 -50.28844 36314 ft 469 kts 252°
2026-04-29 14:02 51.90657 -50.38684 36317 ft 469 kts 252°
2026-04-29 14:03 51.88259 -50.48494 36317 ft 468 kts 252°
2026-04-29 14:03 51.85874 -50.58211 36312 ft 468 kts 252°
2026-04-29 14:04 51.83467 -50.67975 36308 ft 468 kts 252°
2026-04-29 14:04 51.81052 -50.77729 36310 ft 468 kts 252°
2026-04-29 14:05 51.78627 -50.87482 36314 ft 468 kts 251°
2026-04-29 14:05 51.76195 -50.97218 36310 ft 468 kts 251°
2026-04-29 14:06 51.73755 -51.06946 36296 ft 468 kts 251°
2026-04-29 14:06 51.71303 -51.16677 36311 ft 469 kts 251°
2026-04-29 14:07 51.69258 -51.24762 36312 ft 469 kts 251°
2026-04-29 14:07 51.66787 -51.34489 36312 ft 469 kts 251°
2026-04-29 14:08 51.64308 -51.44206 36313 ft 469 kts 251°
2026-04-29 14:08 51.61826 -51.53893 36292 ft 467 kts 250°
2026-04-29 14:09 51.59345 -51.63538 36305 ft 467 kts 250°
2026-04-29 14:09 51.56852 -51.73185 36305 ft 467 kts 250°
2026-04-29 14:10 51.54351 -51.82825 36311 ft 467 kts 250°
2026-04-29 14:10 51.51843 -51.92449 36305 ft 467 kts 250°
2026-04-29 14:11 51.49327 -52.02062 36305 ft 467 kts 249°
2026-04-29 14:11 51.46803 -52.11670 36309 ft 468 kts 249°
2026-04-29 14:12 51.44266 -52.21281 36311 ft 468 kts 249°
2026-04-29 14:12 51.41722 -52.30879 36306 ft 468 kts 249°
2026-04-29 14:13 51.39171 -52.40463 36306 ft 468 kts 249°
2026-04-29 14:13 51.36611 -52.50044 36307 ft 468 kts 249°
2026-04-29 14:14 51.34054 -52.59602 36306 ft 467 kts 249°
2026-04-29 14:14 51.31484 -52.69129 36303 ft 467 kts 248°
2026-04-29 14:15 51.28904 -52.78647 36306 ft 467 kts 248°
2026-04-29 14:15 51.26320 -52.88153 36306 ft 467 kts 248°
2026-04-29 14:16 51.23727 -52.97655 36306 ft 467 kts 248°
2026-04-29 14:16 51.21126 -53.07151 36306 ft 467 kts 248°
2026-04-29 14:17 51.18512 -53.16653 36303 ft 467 kts 248°
2026-04-29 14:17 51.16215 -53.26304 36365 ft 466 kts 255°
2026-04-29 14:18 51.15295 -53.31253 36515 ft 465 kts 255°
2026-04-29 14:18 51.14416 -53.36207 36644 ft 465 kts 256°
2026-04-29 14:18 51.12710 -53.46142 36784 ft 466 kts 256°
2026-04-29 14:19 51.11861 -53.51121 36971 ft 465 kts 256°
2026-04-29 14:19 51.11008 -53.56067 37122 ft 464 kts 255°
2026-04-29 14:19 51.10144 -53.61014 37223 ft 464 kts 255°
2026-04-29 14:19 51.09273 -53.65961 37328 ft 464 kts 255°
2026-04-29 14:20 51.07524 -53.75845 37511 ft 465 kts 255°
2026-04-29 14:20 51.05767 -53.85738 37716 ft 465 kts 255°
2026-04-29 14:21 51.04005 -53.95619 37862 ft 465 kts 255°
2026-04-29 14:21 51.02230 -54.05524 38017 ft 466 kts 255°
2026-04-29 14:22 51.00446 -54.15418 38208 ft 466 kts 255°
2026-04-29 14:22 50.98653 -54.25312 38305 ft 467 kts 254°
2026-04-29 14:23 50.96851 -54.35198 38304 ft 466 kts 254°
2026-04-29 14:23 50.95046 -54.45053 38301 ft 465 kts 254°
2026-04-29 14:24 50.93223 -54.54910 38299 ft 466 kts 254°
2026-04-29 14:24 50.91399 -54.64774 38297 ft 467 kts 254°
2026-04-29 14:25 50.89567 -54.74633 38298 ft 466 kts 253°
2026-04-29 14:25 50.87726 -54.84481 38302 ft 466 kts 253°
2026-04-29 14:26 50.85886 -54.94259 38300 ft 466 kts 253°
2026-04-29 14:26 50.84013 -55.04158 38294 ft 467 kts 253°
2026-04-29 14:27 50.82167 -55.13930 38303 ft 467 kts 253°
2026-04-29 14:28 50.79345 -55.28644 38304 ft 466 kts 253°
2026-04-29 14:28 50.77451 -55.38457 38297 ft 466 kts 253°
2026-04-29 14:29 50.75554 -55.48250 38302 ft 466 kts 252°
2026-04-29 14:29 50.73650 -55.58039 38298 ft 466 kts 252°
2026-04-29 14:30 50.71738 -55.67817 38308 ft 466 kts 252°
2026-04-29 14:30 50.69815 -55.77597 38303 ft 467 kts 252°
2026-04-29 14:31 50.67892 -55.87366 38302 ft 466 kts 252°
2026-04-29 14:31 50.65958 -55.97115 38303 ft 466 kts 252°
2026-04-29 14:32 50.64010 -56.06848 38306 ft 466 kts 252°
2026-04-29 14:32 50.62064 -56.16584 38301 ft 466 kts 251°
2026-04-29 14:33 50.60097 -56.26323 38306 ft 467 kts 251°
2026-04-29 14:33 50.58121 -56.36054 38302 ft 467 kts 251°
2026-04-29 14:34 50.56141 -56.45770 38300 ft 467 kts 251°
2026-04-29 14:34 50.54151 -56.55493 38300 ft 467 kts 251°
2026-04-29 14:35 50.52150 -56.65197 38293 ft 467 kts 251°
2026-04-29 14:35 50.50143 -56.74918 38293 ft 468 kts 251°
2026-04-29 14:36 50.48131 -56.84633 38299 ft 468 kts 251°
2026-04-29 14:36 50.46107 -56.94339 38296 ft 468 kts 250°
2026-04-29 14:37 50.44074 -57.04037 38297 ft 468 kts 250°
2026-04-29 14:37 50.42034 -57.13720 38304 ft 468 kts 250°
2026-04-29 14:38 50.39983 -57.23413 38308 ft 468 kts 250°
2026-04-29 14:38 50.37922 -57.33102 38308 ft 468 kts 250°
2026-04-29 14:39 50.35856 -57.42772 38307 ft 468 kts 250°
2026-04-29 14:39 50.33780 -57.52441 38311 ft 468 kts 250°
2026-04-29 14:40 50.31695 -57.62105 38312 ft 469 kts 249°
2026-04-29 14:40 50.29602 -57.71759 38314 ft 469 kts 249°
2026-04-29 14:41 50.27499 -57.81420 38310 ft 469 kts 249°
2026-04-29 14:41 50.25389 -57.91064 38308 ft 469 kts 249°
2026-04-29 14:42 50.23269 -58.00709 38310 ft 469 kts 249°
2026-04-29 14:42 50.21143 -58.10337 38314 ft 469 kts 249°
2026-04-29 14:43 50.19010 -58.19952 38306 ft 469 kts 249°
2026-04-29 14:43 50.16865 -58.29579 38308 ft 470 kts 248°
2026-04-29 14:44 50.14713 -58.39190 38308 ft 469 kts 248°
2026-04-29 14:44 50.12553 -58.48791 38308 ft 469 kts 248°
2026-04-29 14:45 50.10386 -58.58383 38315 ft 469 kts 248°
2026-04-29 14:45 50.08212 -58.67963 38308 ft 469 kts 248°
2026-04-29 14:46 50.06028 -58.77541 38306 ft 469 kts 248°
2026-04-29 14:46 50.03838 -58.87102 38311 ft 469 kts 248°
2026-04-29 14:47 50.01638 -58.96664 38306 ft 470 kts 248°
2026-04-29 14:47 49.99429 -59.06222 38303 ft 470 kts 248°
2026-04-29 14:48 49.97213 -59.15769 38304 ft 470 kts 247°
2026-04-29 14:48 49.94990 -59.25305 38303 ft 469 kts 247°
2026-04-29 14:49 49.92774 -59.34762 38301 ft 469 kts 247°
2026-04-29 14:49 49.90538 -59.44270 38300 ft 469 kts 247°
2026-04-29 14:50 49.88291 -59.53780 38298 ft 469 kts 247°
2026-04-29 14:50 49.86039 -59.63268 38293 ft 469 kts 247°
2026-04-29 14:51 49.83781 -59.72744 38291 ft 469 kts 247°
2026-04-29 14:51 49.81897 -59.80617 38293 ft 469 kts 247°
2026-04-29 14:52 49.79625 -59.90072 38288 ft 469 kts 246°
2026-04-29 14:52 49.77345 -59.99522 38287 ft 469 kts 246°
2026-04-29 14:53 49.75057 -60.08960 38297 ft 468 kts 246°
2026-04-29 14:53 49.72767 -60.18372 38278 ft 467 kts 246°
2026-04-29 14:54 49.70477 -60.27742 38280 ft 466 kts 246°
2026-04-29 14:54 49.68181 -60.37098 38283 ft 466 kts 246°
2026-04-29 14:55 49.65873 -60.46458 38279 ft 466 kts 246°
2026-04-29 14:55 49.63544 -60.55868 38276 ft 466 kts 246°
2026-04-29 14:56 49.61224 -60.65202 38274 ft 466 kts 246°
2026-04-29 14:56 49.58911 -60.74469 38273 ft 466 kts 246°
2026-04-29 14:57 49.56577 -60.83780 38265 ft 466 kts 246°
2026-04-29 14:57 49.54235 -60.93086 38265 ft 466 kts 246°
2026-04-29 14:58 49.51886 -61.02382 38266 ft 466 kts 246°
2026-04-29 14:58 49.49532 -61.11657 38257 ft 465 kts 246°
2026-04-29 14:59 49.47177 -61.20898 38259 ft 464 kts 246°
2026-04-29 14:59 49.44816 -61.30126 38254 ft 464 kts 246°
2026-04-29 15:00 49.42448 -61.39343 38248 ft 464 kts 245°
2026-04-29 15:00 49.40072 -61.48553 38248 ft 464 kts 245°
2026-04-29 15:01 49.37692 -61.57743 38249 ft 463 kts 246°
2026-04-29 15:01 49.35304 -61.66926 38236 ft 463 kts 246°
2026-04-29 15:02 49.32911 -61.76094 38236 ft 463 kts 245°
2026-04-29 15:02 49.30510 -61.85253 38241 ft 463 kts 245°
2026-04-29 15:03 49.28103 -61.94398 38237 ft 463 kts 245°
2026-04-29 15:03 49.25689 -62.03535 38231 ft 463 kts 245°
2026-04-29 15:04 49.23264 -62.12677 38232 ft 463 kts 245°
2026-04-29 15:04 49.20833 -62.21802 38242 ft 463 kts 245°
2026-04-29 15:05 49.18395 -62.30920 38238 ft 463 kts 245°
2026-04-29 15:05 49.15949 -62.40034 38243 ft 463 kts 245°
2026-04-29 15:06 49.13499 -62.49131 38234 ft 464 kts 245°
2026-04-29 15:06 49.11016 -62.58277 38249 ft 468 kts 245°
2026-04-29 15:07 49.08523 -62.67463 38231 ft 468 kts 245°
2026-04-29 15:07 49.06027 -62.76631 38241 ft 468 kts 245°
2026-04-29 15:08 49.03523 -62.85788 38226 ft 468 kts 245°
2026-04-29 15:08 49.01011 -62.94928 38229 ft 468 kts 245°
2026-04-29 15:09 48.98496 -63.04046 38225 ft 466 kts 245°
2026-04-29 15:09 48.95978 -63.13139 38214 ft 466 kts 246°
2026-04-29 15:10 48.93457 -63.22207 38215 ft 465 kts 245°
2026-04-29 15:10 48.90932 -63.31255 38209 ft 464 kts 245°
2026-04-29 15:11 48.88405 -63.40271 38209 ft 463 kts 245°
2026-04-29 15:11 48.85883 -63.49240 38209 ft 460 kts 245°
2026-04-29 15:12 48.83366 -63.58161 38197 ft 460 kts 244°
2026-04-29 15:12 48.80842 -63.67071 38196 ft 459 kts 244°
2026-04-29 15:13 48.78313 -63.75964 38195 ft 459 kts 245°
2026-04-29 15:13 48.75776 -63.84855 38186 ft 459 kts 244°
2026-04-29 15:14 48.73251 -63.93695 38180 ft 455 kts 244°
2026-04-29 15:14 48.70729 -64.02477 38175 ft 454 kts 244°
2026-04-29 15:15 48.68194 -64.11239 38169 ft 454 kts 244°
2026-04-29 15:15 48.65672 -64.19936 38169 ft 454 kts 244°
2026-04-29 15:16 48.63128 -64.28683 38149 ft 454 kts 244°
2026-04-29 15:16 48.60586 -64.37401 38165 ft 452 kts 244°
2026-04-29 15:17 48.58041 -64.46095 38150 ft 452 kts 244°
2026-04-29 15:17 48.55495 -64.54764 38158 ft 451 kts 244°
2026-04-29 15:18 48.52946 -64.63406 38152 ft 450 kts 243°
2026-04-29 15:18 48.50398 -64.72016 38163 ft 450 kts 243°
2026-04-29 15:19 48.47843 -64.80620 38180 ft 449 kts 243°
2026-04-29 15:19 48.45285 -64.89206 38158 ft 449 kts 243°
2026-04-29 15:20 48.42723 -64.97775 38168 ft 449 kts 243°
2026-04-29 15:20 48.40156 -65.06330 38167 ft 448 kts 243°
2026-04-29 15:21 48.37582 -65.14875 38153 ft 448 kts 243°
2026-04-29 15:21 48.35003 -65.23411 38151 ft 448 kts 243°
2026-04-29 15:22 48.32426 -65.31914 38161 ft 447 kts 243°
2026-04-29 15:22 48.29824 -65.40465 38159 ft 447 kts 243°
2026-04-29 15:23 48.27234 -65.48948 38152 ft 447 kts 243°
2026-04-29 15:23 48.24655 -65.57367 38153 ft 447 kts 242°
2026-04-29 15:24 48.22038 -65.65883 38147 ft 446 kts 242°
2026-04-29 15:24 48.19438 -65.74314 38142 ft 445 kts 242°
2026-04-29 15:25 48.16843 -65.82719 38149 ft 445 kts 242°
2026-04-29 15:25 48.14280 -65.91068 38134 ft 443 kts 242°
2026-04-29 15:26 48.11689 -65.99500 38124 ft 443 kts 242°
2026-04-29 15:26 48.09108 -66.07869 38123 ft 443 kts 242°
2026-04-29 15:27 48.06515 -66.16239 38132 ft 444 kts 242°
2026-04-29 15:27 48.03915 -66.24604 38138 ft 444 kts 242°
2026-04-29 15:28 48.01310 -66.32958 38139 ft 444 kts 242°
2026-04-29 15:28 47.98699 -66.41305 38140 ft 444 kts 242°
2026-04-29 15:29 47.96082 -66.49640 38138 ft 443 kts 242°
2026-04-29 15:30 47.90871 -66.66163 38125 ft 441 kts 241°
2026-04-29 15:30 47.88251 -66.74423 38119 ft 441 kts 241°
2026-04-29 15:31 47.85626 -66.82676 38117 ft 441 kts 241°
2026-04-29 15:31 47.82996 -66.90917 38115 ft 441 kts 241°
2026-04-29 15:32 47.80358 -66.99157 38108 ft 441 kts 241°
2026-04-29 15:32 47.77720 -67.07371 38113 ft 440 kts 241°
2026-04-29 15:33 47.75075 -67.15580 38102 ft 440 kts 241°
2026-04-29 15:33 47.72858 -67.22442 38105 ft 440 kts 241°
2026-04-29 15:34 47.70203 -67.30632 38107 ft 440 kts 241°
2026-04-29 15:34 47.67541 -67.38816 38112 ft 440 kts 241°
2026-04-29 15:35 47.64889 -67.46943 38104 ft 441 kts 241°
2026-04-29 15:35 47.62212 -67.55122 38106 ft 441 kts 241°
2026-04-29 15:36 47.59531 -67.63293 38106 ft 441 kts 241°
2026-04-29 15:36 47.56841 -67.71461 38122 ft 441 kts 241°
2026-04-29 15:37 47.54145 -67.79620 38107 ft 442 kts 241°
2026-04-29 15:37 47.51437 -67.87789 38108 ft 442 kts 241°
2026-04-29 15:38 47.48721 -67.95958 38101 ft 442 kts 241°
2026-04-29 15:38 47.46002 -68.04109 38092 ft 442 kts 241°
2026-04-29 15:39 47.43274 -68.12261 38088 ft 442 kts 241°
2026-04-29 15:39 47.40540 -68.20406 38081 ft 442 kts 241°
2026-04-29 15:40 47.37803 -68.28534 38083 ft 442 kts 241°
2026-04-29 15:40 47.35059 -68.36656 38080 ft 442 kts 241°
2026-04-29 15:41 47.32309 -68.44772 38071 ft 442 kts 241°
2026-04-29 15:41 47.29553 -68.52881 38059 ft 442 kts 241°
2026-04-29 15:42 47.26793 -68.60978 38051 ft 442 kts 241°
2026-04-29 15:42 47.24024 -68.69071 38055 ft 443 kts 241°
2026-04-29 15:43 47.21251 -68.77154 38058 ft 443 kts 241°
2026-04-29 15:43 47.18471 -68.85231 38056 ft 443 kts 241°
2026-04-29 15:44 47.15687 -68.93296 38062 ft 442 kts 241°
2026-04-29 15:44 47.12894 -69.01364 38060 ft 443 kts 241°
2026-04-29 15:45 47.10090 -69.09433 38051 ft 444 kts 241°
2026-04-29 15:45 47.07281 -69.17495 38050 ft 444 kts 241°
2026-04-29 15:46 47.04468 -69.25545 38042 ft 444 kts 241°
2026-04-29 15:46 47.01645 -69.33597 38043 ft 444 kts 241°
2026-04-29 15:47 46.98818 -69.41637 38032 ft 444 kts 241°
2026-04-29 15:47 46.95987 -69.49663 38031 ft 444 kts 241°
2026-04-29 15:48 46.93152 -69.57676 38029 ft 444 kts 241°
2026-04-29 15:48 46.90312 -69.65682 38024 ft 443 kts 241°
2026-04-29 15:49 46.87465 -69.73681 38021 ft 443 kts 241°
2026-04-29 15:49 46.84613 -69.81670 38022 ft 443 kts 241°
2026-04-29 15:50 46.81777 -69.89590 38008 ft 443 kts 241°
2026-04-29 15:50 46.78913 -69.97565 38012 ft 443 kts 241°
2026-04-29 15:51 46.76047 -70.05521 38005 ft 443 kts 241°
2026-04-29 15:51 46.73176 -70.13469 38014 ft 443 kts 241°
2026-04-29 15:52 46.70298 -70.21408 38001 ft 443 kts 241°
2026-04-29 15:52 46.67417 -70.29337 37999 ft 443 kts 241°
2026-04-29 15:53 46.64526 -70.37266 37999 ft 444 kts 241°
2026-04-29 15:53 46.61627 -70.45197 38000 ft 444 kts 241°
2026-04-29 15:54 46.58724 -70.53113 37998 ft 444 kts 241°
2026-04-29 15:54 46.55815 -70.61022 37996 ft 444 kts 241°
2026-04-29 15:55 46.52900 -70.68924 37998 ft 444 kts 241°
2026-04-29 15:55 46.49980 -70.76802 37994 ft 442 kts 241°
2026-04-29 15:56 46.47060 -70.84624 37992 ft 440 kts 241°
2026-04-29 15:56 46.44139 -70.92421 37990 ft 440 kts 241°
2026-04-29 15:57 46.41213 -71.00214 37989 ft 440 kts 241°
2026-04-29 15:57 46.38288 -71.07985 37991 ft 438 kts 241°
2026-04-29 15:58 46.35368 -71.15718 37990 ft 437 kts 241°
2026-04-29 15:58 46.32444 -71.23439 37991 ft 437 kts 241°
2026-04-29 15:59 46.29517 -71.31149 37993 ft 437 kts 241°
2026-04-29 15:59 46.26592 -71.38829 37972 ft 435 kts 241°
2026-04-29 16:00 46.23670 -71.46481 37989 ft 435 kts 240°
2026-04-29 16:00 46.20744 -71.54123 37990 ft 435 kts 240°
2026-04-29 16:01 46.17813 -71.61754 37990 ft 435 kts 240°
2026-04-29 16:01 46.14877 -71.69379 37988 ft 435 kts 240°
2026-04-29 16:02 46.11935 -71.76998 37964 ft 435 kts 240°
2026-04-29 16:02 46.08985 -71.84616 38000 ft 436 kts 240°
2026-04-29 16:03 46.06026 -71.92236 37981 ft 436 kts 240°
2026-04-29 16:03 46.03078 -71.99807 37974 ft 437 kts 240°
2026-04-29 16:04 46.00104 -72.07423 37976 ft 436 kts 240°
2026-04-29 16:04 45.97127 -72.15024 37963 ft 436 kts 240°
2026-04-29 16:05 45.94143 -72.22626 37966 ft 436 kts 240°
2026-04-29 16:05 45.91154 -72.30217 37966 ft 436 kts 240°
2026-04-29 16:06 45.88161 -72.37798 37963 ft 436 kts 240°
2026-04-29 16:06 45.85165 -72.45366 37962 ft 436 kts 240°
2026-04-29 16:07 45.82168 -72.52915 37957 ft 435 kts 240°
2026-04-29 16:07 45.79170 -72.60447 37960 ft 435 kts 240°
2026-04-29 16:08 45.76164 -72.67977 37955 ft 435 kts 240°
2026-04-29 16:08 45.73155 -72.75495 37956 ft 435 kts 240°
2026-04-29 16:09 45.70139 -72.83007 37958 ft 435 kts 240°
2026-04-29 16:09 45.67121 -72.90510 37934 ft 435 kts 240°
2026-04-29 16:10 45.64094 -72.98009 37958 ft 436 kts 240°
2026-04-29 16:10 45.61055 -73.05519 37947 ft 437 kts 240°
2026-04-29 16:11 45.58010 -73.13026 37950 ft 437 kts 240°
2026-04-29 16:11 45.54957 -73.20531 37951 ft 437 kts 240°
2026-04-29 16:12 45.51900 -73.28025 37952 ft 437 kts 240°
2026-04-29 16:12 45.48798 -73.35609 37944 ft 437 kts 240°
2026-04-29 16:13 45.45730 -73.43089 37944 ft 437 kts 240°
2026-04-29 16:13 45.42661 -73.50553 37948 ft 437 kts 240°
2026-04-29 16:14 45.40081 -73.56813 37951 ft 437 kts 240°
2026-04-29 16:14 45.36997 -73.64275 37948 ft 437 kts 240°
2026-04-29 16:15 45.33912 -73.71721 37952 ft 437 kts 240°
2026-04-29 16:15 45.30823 -73.79155 37949 ft 437 kts 240°
2026-04-29 16:16 45.27731 -73.86578 37944 ft 437 kts 240°
2026-04-29 16:16 45.24653 -73.93950 37942 ft 437 kts 240°
2026-04-29 16:17 45.21548 -74.01364 37934 ft 437 kts 240°
2026-04-29 16:17 45.18439 -74.08768 37930 ft 437 kts 240°
2026-04-29 16:18 45.15323 -74.16171 37933 ft 437 kts 240°
2026-04-29 16:18 45.12202 -74.23565 37930 ft 437 kts 240°
2026-04-29 16:19 45.09074 -74.30959 37930 ft 437 kts 240°
2026-04-29 16:19 45.05943 -74.38337 37931 ft 438 kts 240°
2026-04-29 16:20 45.02804 -74.45719 37930 ft 438 kts 240°
2026-04-29 16:20 44.99657 -74.53096 37955 ft 438 kts 240°
2026-04-29 16:21 44.96507 -74.60465 37946 ft 439 kts 240°
2026-04-29 16:21 44.93347 -74.67834 37937 ft 439 kts 240°
2026-04-29 16:22 44.90170 -74.75188 37951 ft 439 kts 239°
2026-04-29 16:22 44.86954 -74.82497 37952 ft 439 kts 239°
2026-04-29 16:23 44.83725 -74.89790 37952 ft 439 kts 239°
2026-04-29 16:23 44.80494 -74.97078 37927 ft 439 kts 239°
2026-04-29 16:24 44.77263 -75.04356 37931 ft 438 kts 239°
2026-04-29 16:24 44.74031 -75.11623 37927 ft 437 kts 239°
2026-04-29 16:25 44.70799 -75.18867 37922 ft 437 kts 239°
2026-04-29 16:25 44.67566 -75.26099 37919 ft 437 kts 239°
2026-04-29 16:26 44.64327 -75.33322 37916 ft 437 kts 239°
2026-04-29 16:26 44.61087 -75.40533 37906 ft 436 kts 239°
2026-04-29 16:27 44.57845 -75.47728 37907 ft 436 kts 239°
2026-04-29 16:27 44.54602 -75.54907 37910 ft 436 kts 239°
2026-04-29 16:28 44.51354 -75.62081 37910 ft 435 kts 239°
2026-04-29 16:28 44.48109 -75.69228 37897 ft 435 kts 239°
2026-04-29 16:29 44.44864 -75.76359 37913 ft 434 kts 239°
2026-04-29 16:29 44.41622 -75.83465 37922 ft 433 kts 239°
2026-04-29 16:30 44.38378 -75.90559 37924 ft 433 kts 239°
2026-04-29 16:30 44.35131 -75.97641 37930 ft 433 kts 239°
2026-04-29 16:31 44.31900 -76.04671 37927 ft 433 kts 239°
2026-04-29 16:31 44.28646 -76.11732 37922 ft 431 kts 239°
2026-04-29 16:32 44.25400 -76.18762 37926 ft 431 kts 239°
2026-04-29 16:32 44.22147 -76.25788 37940 ft 431 kts 239°
2026-04-29 16:33 44.17264 -76.36304 37929 ft 431 kts 239°
2026-04-29 16:33 44.14005 -76.43301 37956 ft 430 kts 239°
2026-04-29 16:34 44.10746 -76.50280 37942 ft 430 kts 239°
2026-04-29 16:34 44.07484 -76.57251 37951 ft 430 kts 239°
2026-04-29 16:35 44.04218 -76.64213 37946 ft 430 kts 239°
2026-04-29 16:35 44.00947 -76.71169 37944 ft 430 kts 239°
2026-04-29 16:36 43.97672 -76.78117 37941 ft 430 kts 239°
2026-04-29 16:36 43.94394 -76.85055 37937 ft 430 kts 239°
2026-04-29 16:37 43.91109 -76.91989 37938 ft 430 kts 238°
2026-04-29 16:37 43.88375 -76.97750 37938 ft 431 kts 238°
2026-04-29 16:38 43.84522 -77.05847 37942 ft 430 kts 238°
2026-04-29 16:38 43.81232 -77.12743 37938 ft 428 kts 238°
2026-04-29 16:39 43.77944 -77.19619 37942 ft 429 kts 238°
2026-04-29 16:39 43.74650 -77.26491 37937 ft 428 kts 238°
2026-04-29 16:40 43.71353 -77.33356 37918 ft 428 kts 238°
2026-04-29 16:40 43.68063 -77.40185 37938 ft 426 kts 238°
2026-04-29 16:41 43.64783 -77.46982 37940 ft 425 kts 238°
2026-04-29 16:41 43.61502 -77.53763 37941 ft 425 kts 238°
2026-04-29 16:42 43.58216 -77.60539 37945 ft 425 kts 238°
2026-04-29 16:42 43.54929 -77.67305 37932 ft 424 kts 238°
2026-04-29 16:43 43.51643 -77.74049 37953 ft 423 kts 238°
2026-04-29 16:43 43.48363 -77.80767 37936 ft 423 kts 238°
2026-04-29 16:44 43.45076 -77.87484 37935 ft 423 kts 238°
2026-04-29 16:44 43.41785 -77.94193 37937 ft 423 kts 238°
2026-04-29 16:45 43.38489 -78.00899 37933 ft 423 kts 238°
2026-04-29 16:45 43.35190 -78.07594 37920 ft 423 kts 238°
2026-04-29 16:46 43.31887 -78.14283 37938 ft 423 kts 238°
2026-04-29 16:46 43.28575 -78.20974 37931 ft 423 kts 238°
2026-04-29 16:47 43.25260 -78.27654 37923 ft 424 kts 238°
2026-04-29 16:47 43.21942 -78.34327 37916 ft 423 kts 238°
2026-04-29 16:48 43.18624 -78.40985 37929 ft 422 kts 238°
2026-04-29 16:48 43.15315 -78.47610 37926 ft 422 kts 238°
2026-04-29 16:49 43.12000 -78.54234 37918 ft 422 kts 238°
2026-04-29 16:49 43.08680 -78.60852 37906 ft 422 kts 238°
2026-04-29 16:50 43.05357 -78.67461 37904 ft 421 kts 238°
2026-04-29 16:50 43.02019 -78.74087 37906 ft 419 kts 237°
2026-04-29 16:51 42.98740 -78.80580 37926 ft 418 kts 237°
2026-04-29 16:51 42.95434 -78.87109 37926 ft 418 kts 237°
2026-04-29 16:52 42.92129 -78.93625 37920 ft 418 kts 237°
2026-04-29 16:52 42.88818 -79.00137 37904 ft 417 kts 237°
2026-04-29 16:53 42.85518 -79.06614 37932 ft 415 kts 237°
2026-04-29 16:53 42.82219 -79.13073 37914 ft 417 kts 237°
2026-04-29 16:54 42.78897 -79.19566 37918 ft 418 kts 236°
2026-04-29 16:54 42.75575 -79.26045 37916 ft 418 kts 236°
2026-04-29 16:55 42.72245 -79.32525 37904 ft 417 kts 236°
2026-04-29 16:55 42.68918 -79.38984 37914 ft 417 kts 236°
2026-04-29 16:56 42.65591 -79.45429 37922 ft 417 kts 236°
2026-04-29 16:56 42.62788 -79.50849 37920 ft 419 kts 236°
2026-04-29 16:57 42.59436 -79.57318 37913 ft 419 kts 236°
2026-04-29 16:57 42.56124 -79.63774 37930 ft 419 kts 237°
2026-04-29 16:58 42.52907 -79.70363 37931 ft 419 kts 238°
2026-04-29 16:58 42.49725 -79.76958 37939 ft 418 kts 238°
2026-04-29 16:59 42.46532 -79.83541 37936 ft 418 kts 238°
2026-04-29 16:59 42.43319 -79.90125 37924 ft 419 kts 238°
2026-04-29 17:00 42.40094 -79.96708 37930 ft 420 kts 238°
2026-04-29 17:00 42.36867 -80.03281 37918 ft 419 kts 238°
2026-04-29 17:01 42.33636 -80.09847 37920 ft 419 kts 238°
2026-04-29 17:01 42.30401 -80.16408 37921 ft 420 kts 238°
2026-04-29 17:02 42.27162 -80.22964 37909 ft 420 kts 238°
2026-04-29 17:02 42.23914 -80.29525 37920 ft 420 kts 238°
2026-04-29 17:03 42.20642 -80.36119 37887 ft 420 kts 237°
2026-04-29 17:03 42.17394 -80.42649 37891 ft 418 kts 238°
2026-04-29 17:04 42.14174 -80.49110 37898 ft 418 kts 237°
2026-04-29 17:04 42.10930 -80.55605 37915 ft 418 kts 237°
2026-04-29 17:05 42.07676 -80.62107 37894 ft 419 kts 237°
2026-04-29 17:05 42.04416 -80.68606 37886 ft 419 kts 237°
2026-04-29 17:06 42.01153 -80.75097 37880 ft 418 kts 237°
2026-04-29 17:06 41.97872 -80.81609 37876 ft 418 kts 237°
2026-04-29 17:07 41.94610 -80.88068 37881 ft 418 kts 237°
2026-04-29 17:07 41.91344 -80.94525 37877 ft 418 kts 237°
2026-04-29 17:08 41.88068 -81.00986 37884 ft 419 kts 237°
2026-04-29 17:08 41.84784 -81.07449 37847 ft 419 kts 237°
2026-04-29 17:09 41.81502 -81.13892 37885 ft 418 kts 237°
2026-04-29 17:09 41.78227 -81.20312 37882 ft 417 kts 237°
2026-04-29 17:10 41.74952 -81.26718 37880 ft 417 kts 237°
2026-04-29 17:10 41.71647 -81.33168 37883 ft 418 kts 237°
2026-04-29 17:11 41.68352 -81.39584 37875 ft 418 kts 237°
2026-04-29 17:11 41.65030 -81.46038 37866 ft 418 kts 237°
2026-04-29 17:12 41.61689 -81.52518 37897 ft 417 kts 237°
2026-04-29 17:12 41.58904 -81.57907 37889 ft 417 kts 237°
2026-04-29 17:13 41.55050 -81.65351 37885 ft 417 kts 237°
2026-04-29 17:13 41.51698 -81.71811 37876 ft 418 kts 237°
2026-04-29 17:14 41.48379 -81.78193 37883 ft 419 kts 237°
2026-04-29 17:14 41.45060 -81.84560 37879 ft 417 kts 237°
2026-04-29 17:15 41.41755 -81.90888 37879 ft 416 kts 237°
2026-04-29 17:15 41.38445 -81.97214 37879 ft 416 kts 237°
2026-04-29 17:16 41.35144 -82.03533 37897 ft 415 kts 239°
2026-04-29 17:16 41.32267 -82.10175 37897 ft 414 kts 243°
2026-04-29 17:17 41.29538 -82.16931 37878 ft 414 kts 243°
2026-04-29 17:17 41.26842 -82.23688 37896 ft 413 kts 243°
2026-04-29 17:18 41.24141 -82.30432 37901 ft 413 kts 243°
2026-04-29 17:18 41.21433 -82.37157 37909 ft 413 kts 243°
2026-04-29 17:19 41.18715 -82.43883 37915 ft 414 kts 243°
2026-04-29 17:19 41.15979 -82.50636 37918 ft 416 kts 243°
2026-04-29 17:20 41.12950 -82.57178 37916 ft 418 kts 237°
2026-04-29 17:20 41.09489 -82.63365 37895 ft 418 kts 235°
2026-04-29 17:21 41.05958 -82.69454 37917 ft 416 kts 235°
2026-04-29 17:21 41.02424 -82.75519 37899 ft 415 kts 235°
2026-04-29 17:22 40.98898 -82.81583 37904 ft 416 kts 235°
2026-04-29 17:22 40.95960 -82.86639 37901 ft 418 kts 235°
2026-04-29 17:23 40.92414 -82.92732 37903 ft 418 kts 235°
2026-04-29 17:23 40.88863 -82.98820 37905 ft 417 kts 235°
2026-04-29 17:24 40.85324 -83.04875 37899 ft 416 kts 235°
2026-04-29 17:24 40.81781 -83.10926 37898 ft 416 kts 235°
2026-04-29 17:25 40.78236 -83.16970 37896 ft 417 kts 235°
2026-04-29 17:25 40.74682 -83.23016 37900 ft 418 kts 235°
2026-04-29 17:26 40.71114 -83.29072 37863 ft 418 kts 234°
2026-04-29 17:26 40.67163 -83.34722 37901 ft 420 kts 230°
2026-04-29 17:27 40.63033 -83.40148 37899 ft 420 kts 229°
2026-04-29 17:27 40.58864 -83.45532 37892 ft 420 kts 229°
2026-04-29 17:28 40.54695 -83.50912 37896 ft 420 kts 229°
2026-04-29 17:28 40.50532 -83.56291 37893 ft 420 kts 229°
2026-04-29 17:29 40.46358 -83.61682 37894 ft 421 kts 229°
2026-04-29 17:29 40.42172 -83.67078 37895 ft 422 kts 229°
2026-04-29 17:30 40.37985 -83.72465 37912 ft 422 kts 229°
2026-04-29 17:30 40.33797 -83.77843 37897 ft 422 kts 229°
2026-04-29 17:31 40.29603 -83.83218 37890 ft 421 kts 229°
2026-04-29 17:31 40.25420 -83.88569 37897 ft 420 kts 229°
2026-04-29 17:32 40.21251 -83.93893 37906 ft 419 kts 229°
2026-04-29 17:32 40.17067 -83.99228 37901 ft 420 kts 229°
2026-04-29 17:33 40.12859 -84.04583 37900 ft 420 kts 229°
2026-04-29 17:33 40.08701 -84.09864 37893 ft 419 kts 230°
2026-04-29 17:34 40.04492 -84.15200 37912 ft 418 kts 230°
2026-04-29 17:34 40.00317 -84.20483 37915 ft 418 kts 229°
2026-04-29 17:35 39.94079 -84.28363 37916 ft 418 kts 230°
2026-04-29 17:36 39.90353 -84.34089 37917 ft 412 kts 238°
2026-04-29 17:36 39.86983 -84.40108 37906 ft 410 kts 239°
2026-04-29 17:37 39.83686 -84.46157 37915 ft 409 kts 239°
2026-04-29 17:37 39.80395 -84.52190 37924 ft 409 kts 239°
2026-04-29 17:38 39.77065 -84.58253 37930 ft 409 kts 239°
2026-04-29 17:38 39.73772 -84.64223 37937 ft 409 kts 239°
2026-04-29 17:39 39.70453 -84.70227 37943 ft 409 kts 239°
2026-04-29 17:39 39.67134 -84.76218 37936 ft 408 kts 239°
2026-04-29 17:40 39.63825 -84.82181 37940 ft 406 kts 239°
2026-04-29 17:40 39.60519 -84.88130 37939 ft 406 kts 239°
2026-04-29 17:41 39.57213 -84.94069 37938 ft 406 kts 239°
2026-04-29 17:41 39.53899 -85.00010 37936 ft 406 kts 239°
2026-04-29 17:42 39.50588 -85.05933 37939 ft 406 kts 239°
2026-04-29 17:42 39.47270 -85.11859 37899 ft 406 kts 239°
2026-04-29 17:43 39.43955 -85.17766 37929 ft 405 kts 239°
2026-04-29 17:43 39.40646 -85.23653 37924 ft 404 kts 239°
2026-04-29 17:44 39.37337 -85.29530 37954 ft 404 kts 239°
2026-04-29 17:44 39.34027 -85.35397 37930 ft 404 kts 239°
2026-04-29 17:45 39.30711 -85.41265 37932 ft 404 kts 239°
2026-04-29 17:45 39.27394 -85.47123 37940 ft 404 kts 239°
2026-04-29 17:46 39.24074 -85.52976 37941 ft 403 kts 240°
2026-04-29 17:46 39.20784 -85.58763 37952 ft 402 kts 240°
2026-04-29 17:47 39.17454 -85.64614 37955 ft 402 kts 240°
2026-04-29 17:47 39.14145 -85.70417 37957 ft 402 kts 240°
2026-04-29 17:48 39.10850 -85.76185 37960 ft 402 kts 240°
2026-04-29 17:48 39.07533 -85.81980 37960 ft 402 kts 240°
2026-04-29 17:49 39.04208 -85.87777 37934 ft 402 kts 240°
2026-04-29 17:49 39.00896 -85.93539 37956 ft 399 kts 240°
2026-04-29 17:50 38.97601 -85.99263 37954 ft 398 kts 240°
2026-04-29 17:50 38.94306 -86.04982 37951 ft 398 kts 240°
2026-04-29 17:51 38.90985 -86.10733 37948 ft 398 kts 240°
2026-04-29 17:51 38.87706 -86.16401 37946 ft 398 kts 240°
2026-04-29 17:52 38.84398 -86.22109 37956 ft 398 kts 240°
2026-04-29 17:52 38.81089 -86.27807 37983 ft 398 kts 240°
2026-04-29 17:53 38.77793 -86.33473 37986 ft 396 kts 240°
2026-04-29 17:53 38.74496 -86.39133 37988 ft 396 kts 240°
2026-04-29 17:54 38.71202 -86.44775 37986 ft 395 kts 240°
2026-04-29 17:54 38.67908 -86.50409 37983 ft 395 kts 240°
2026-04-29 17:55 38.64608 -86.56044 37992 ft 396 kts 240°
2026-04-29 17:55 38.61309 -86.61667 37998 ft 395 kts 240°
2026-04-29 17:56 38.58012 -86.67273 37999 ft 394 kts 241°
2026-04-29 17:56 38.54727 -86.72852 37999 ft 393 kts 240°
2026-04-29 17:57 38.51442 -86.78423 37996 ft 393 kts 240°
2026-04-29 17:57 38.48154 -86.83990 37992 ft 393 kts 240°
2026-04-29 17:58 38.44860 -86.89556 37999 ft 393 kts 240°
2026-04-29 17:58 38.41565 -86.95114 38010 ft 393 kts 240°
2026-04-29 17:59 38.38268 -87.00665 38009 ft 392 kts 240°
2026-04-29 17:59 38.34973 -87.06204 38010 ft 392 kts 240°
2026-04-29 18:00 38.31679 -87.11734 38010 ft 392 kts 240°
2026-04-29 18:00 38.28380 -87.17260 38010 ft 392 kts 240°
2026-04-29 18:01 38.25079 -87.22783 38000 ft 392 kts 240°
2026-04-29 18:01 38.21773 -87.28302 38014 ft 392 kts 240°
2026-04-29 18:02 38.18491 -87.33774 38020 ft 392 kts 240°
2026-04-29 18:02 38.15181 -87.39280 38017 ft 391 kts 241°
2026-04-29 18:03 38.12439 -87.43834 38037 ft 390 kts 241°
2026-04-29 18:03 38.09145 -87.49298 38032 ft 389 kts 241°
2026-04-29 18:04 38.05852 -87.54755 38038 ft 389 kts 241°
2026-04-29 18:04 38.02556 -87.60206 38039 ft 390 kts 241°
2026-04-29 18:05 37.99256 -87.65655 38032 ft 390 kts 241°
2026-04-29 18:05 37.95950 -87.71102 38031 ft 390 kts 240°
2026-04-29 18:06 37.92628 -87.76526 38002 ft 390 kts 240°
2026-04-29 18:06 37.89109 -87.81780 38035 ft 392 kts 238°
2026-04-29 18:07 37.85502 -87.86949 38036 ft 392 kts 238°
2026-04-29 18:07 37.81896 -87.92120 38035 ft 391 kts 238°
2026-04-29 18:08 37.78310 -87.97292 38034 ft 391 kts 238°
2026-04-29 18:08 37.74724 -88.02472 38041 ft 391 kts 238°
2026-04-29 18:09 37.71142 -88.07641 38040 ft 391 kts 238°
2026-04-29 18:09 37.67558 -88.12805 38030 ft 391 kts 238°
2026-04-29 18:10 37.63977 -88.17952 38041 ft 389 kts 238°
2026-04-29 18:10 37.60403 -88.23083 38043 ft 389 kts 238°
2026-04-29 18:11 37.56826 -88.28210 38041 ft 389 kts 238°
2026-04-29 18:11 37.53249 -88.33329 38045 ft 389 kts 238°
2026-04-29 18:12 37.49690 -88.38414 38045 ft 389 kts 238°
2026-04-29 18:12 37.46107 -88.43525 37995 ft 389 kts 238°
2026-04-29 18:13 37.42507 -88.48649 38038 ft 387 kts 239°
2026-04-29 18:13 37.38950 -88.53703 38042 ft 385 kts 239°
2026-04-29 18:14 37.35404 -88.58740 38043 ft 385 kts 239°
2026-04-29 18:14 37.31856 -88.63773 38043 ft 385 kts 239°
2026-04-29 18:15 37.28330 -88.68767 38040 ft 385 kts 239°
2026-04-29 18:15 37.24755 -88.73819 38049 ft 385 kts 239°
2026-04-29 18:16 37.21226 -88.78798 38044 ft 384 kts 239°
2026-04-29 18:16 37.17679 -88.83794 38053 ft 383 kts 239°
2026-04-29 18:17 37.14116 -88.88804 38057 ft 382 kts 239°
2026-04-29 18:17 37.10588 -88.93759 38061 ft 380 kts 239°
2026-04-29 18:18 37.07065 -88.98703 38045 ft 380 kts 239°
2026-04-29 18:18 37.03537 -89.03646 38056 ft 380 kts 239°
2026-04-29 18:19 37.00010 -89.08577 38078 ft 380 kts 239°
2026-04-29 18:19 36.96479 -89.13506 38078 ft 380 kts 239°
2026-04-29 18:20 36.92958 -89.18412 38076 ft 379 kts 239°
2026-04-29 18:20 36.89462 -89.23279 38071 ft 379 kts 239°
2026-04-29 18:21 36.85943 -89.28170 38066 ft 378 kts 239°
2026-04-29 18:21 36.82432 -89.33042 38057 ft 377 kts 239°
2026-04-29 18:22 36.78924 -89.37904 38059 ft 377 kts 239°
2026-04-29 18:22 36.75412 -89.42766 38059 ft 377 kts 239°
2026-04-29 18:23 36.71897 -89.47623 38058 ft 377 kts 240°
2026-04-29 18:23 36.68381 -89.52474 38057 ft 377 kts 240°
2026-04-29 18:24 36.64864 -89.57320 38059 ft 377 kts 240°
2026-04-29 18:24 36.61345 -89.62160 38056 ft 377 kts 240°
2026-04-29 18:25 36.57820 -89.66999 38064 ft 377 kts 240°
2026-04-29 18:25 36.54293 -89.71831 38056 ft 377 kts 240°
2026-04-29 18:26 36.50768 -89.76656 38056 ft 377 kts 240°
2026-04-29 18:26 36.47239 -89.81479 38056 ft 378 kts 240°
2026-04-29 18:27 36.43693 -89.86322 38057 ft 379 kts 240°
2026-04-29 18:27 36.40141 -89.91160 38059 ft 379 kts 240°
2026-04-29 18:28 36.36565 -89.96023 38055 ft 379 kts 240°
2026-04-29 18:28 36.33013 -90.00849 38069 ft 379 kts 240°
2026-04-29 18:29 36.29455 -90.05676 38066 ft 379 kts 240°
2026-04-29 18:29 36.25911 -90.10510 38073 ft 378 kts 240°
2026-04-29 18:30 36.22485 -90.15430 38058 ft 377 kts 242°
2026-04-29 18:30 36.19091 -90.20404 38064 ft 379 kts 242°
2026-04-29 18:31 36.15683 -90.25377 38065 ft 379 kts 241°
2026-04-29 18:31 36.12265 -90.30336 38062 ft 379 kts 241°
2026-04-29 18:32 36.08816 -90.35322 38066 ft 379 kts 241°
2026-04-29 18:32 36.03674 -90.42744 38067 ft 379 kts 241°
2026-04-29 18:33 36.00244 -90.47685 38064 ft 379 kts 241°
2026-04-29 18:33 35.96814 -90.52622 38063 ft 379 kts 241°
2026-04-29 18:34 35.94543 -90.55885 38068 ft 379 kts 241°
2026-04-29 18:34 35.89951 -90.62476 38067 ft 379 kts 241°
2026-04-29 18:35 35.86514 -90.67401 38068 ft 379 kts 241°
2026-04-29 18:35 35.83076 -90.72319 38090 ft 379 kts 241°
2026-04-29 18:36 35.79635 -90.77236 38097 ft 379 kts 241°
2026-04-29 18:36 35.76197 -90.82138 38085 ft 378 kts 241°
2026-04-29 18:37 35.72759 -90.87037 38083 ft 379 kts 240°
2026-04-29 18:37 35.69306 -90.91953 38085 ft 380 kts 240°
2026-04-29 18:38 35.65838 -90.96877 38080 ft 381 kts 240°
2026-04-29 18:38 35.62370 -91.01794 38080 ft 381 kts 240°
2026-04-29 18:39 35.58898 -91.06710 38081 ft 381 kts 240°
2026-04-29 18:39 35.55429 -91.11614 38089 ft 381 kts 240°
2026-04-29 18:40 35.51956 -91.16519 38089 ft 380 kts 240°
2026-04-29 18:40 35.48489 -91.21407 38052 ft 379 kts 240°
2026-04-29 18:41 35.41554 -91.31166 38094 ft 379 kts 240°
2026-04-29 18:42 35.38670 -91.35217 38094 ft 379 kts 240°
2026-04-29 18:42 35.35197 -91.40088 38090 ft 379 kts 240°
2026-04-29 18:43 35.31721 -91.44956 38088 ft 379 kts 240°
2026-04-29 18:43 35.28246 -91.49815 38084 ft 379 kts 240°
2026-04-29 18:44 35.24765 -91.54676 38080 ft 379 kts 240°
2026-04-29 18:44 35.21291 -91.59519 38075 ft 378 kts 239°
2026-04-29 18:45 35.17824 -91.64346 38073 ft 378 kts 239°
2026-04-29 18:45 35.14357 -91.69168 38094 ft 377 kts 239°
2026-04-29 18:46 35.10891 -91.73982 38088 ft 377 kts 239°
2026-04-29 18:46 35.07421 -91.78795 38089 ft 378 kts 239°
2026-04-29 18:47 35.03950 -91.83602 38086 ft 378 kts 239°
2026-04-29 18:47 35.00472 -91.88410 38074 ft 378 kts 239°
2026-04-29 18:48 34.96997 -91.93208 38036 ft 377 kts 239°
2026-04-29 18:48 34.93506 -91.98030 38067 ft 381 kts 239°
2026-04-29 18:49 34.89988 -92.02877 38073 ft 382 kts 239°
2026-04-29 18:49 34.86458 -92.07727 38049 ft 382 kts 239°
2026-04-29 18:50 34.82931 -92.12568 38055 ft 382 kts 239°
2026-04-29 18:50 34.79474 -92.17454 38047 ft 379 kts 241°
2026-04-29 18:51 34.76177 -92.22456 38074 ft 378 kts 242°
2026-04-29 18:51 34.72916 -92.27472 38092 ft 378 kts 242°
2026-04-29 18:52 34.69638 -92.32477 38080 ft 380 kts 243°
2026-04-29 18:52 34.66318 -92.37522 38075 ft 384 kts 242°
2026-04-29 18:53 34.62965 -92.42589 38074 ft 385 kts 242°
2026-04-29 18:53 34.59630 -92.47616 38073 ft 385 kts 242°
2026-04-29 18:54 34.56255 -92.52702 38065 ft 384 kts 242°
2026-04-29 18:54 34.52923 -92.57719 38070 ft 384 kts 242°
2026-04-29 18:55 34.49567 -92.62766 38072 ft 384 kts 242°
2026-04-29 18:55 34.46209 -92.67808 38073 ft 384 kts 242°
2026-04-29 18:56 34.42828 -92.72877 38064 ft 385 kts 242°
2026-04-29 18:56 34.39455 -92.77941 38062 ft 392 kts 242°
2026-04-29 18:57 34.36013 -92.83090 38060 ft 393 kts 242°
2026-04-29 18:57 34.32566 -92.88224 38061 ft 393 kts 242°
2026-04-29 18:58 34.29124 -92.93351 38052 ft 393 kts 242°
2026-04-29 18:58 34.25679 -92.98479 38051 ft 393 kts 242°
2026-04-29 18:59 34.22230 -93.03605 38046 ft 393 kts 242°
2026-04-29 18:59 34.18780 -93.08727 38044 ft 393 kts 242°
2026-04-29 19:00 34.15327 -93.13847 38041 ft 395 kts 242°
2026-04-29 19:00 34.11843 -93.19012 38046 ft 398 kts 242°
2026-04-29 19:01 34.08336 -93.24192 38045 ft 398 kts 242°
2026-04-29 19:01 34.04830 -93.29362 38046 ft 398 kts 242°
2026-04-29 19:02 34.01911 -93.33662 38041 ft 398 kts 242°
2026-04-29 19:02 33.97805 -93.39704 38039 ft 398 kts 242°
2026-04-29 19:03 33.94270 -93.44899 38036 ft 399 kts 242°
2026-04-29 19:03 33.90751 -93.50063 38037 ft 399 kts 242°
2026-04-29 19:04 33.87226 -93.55229 38032 ft 400 kts 241°
2026-04-29 19:04 33.83686 -93.60410 38026 ft 401 kts 241°
2026-04-29 19:05 33.80157 -93.65564 38026 ft 402 kts 241°
2026-04-29 19:05 33.76581 -93.70778 38026 ft 402 kts 241°
2026-04-29 19:06 33.73026 -93.75957 38021 ft 402 kts 241°
2026-04-29 19:07 33.67715 -93.83680 38009 ft 401 kts 241°
2026-04-29 19:07 33.64161 -93.88839 37997 ft 401 kts 241°
2026-04-29 19:08 33.60601 -93.94000 37974 ft 401 kts 240°
2026-04-29 19:08 33.57034 -93.99165 37983 ft 403 kts 240°
2026-04-29 19:09 33.53457 -94.04335 37980 ft 403 kts 240°
2026-04-29 19:09 33.50202 -94.09693 37981 ft 394 kts 246°
2026-04-29 19:10 33.47285 -94.15244 37981 ft 393 kts 248°
2026-04-29 19:10 33.44892 -94.19919 37931 ft 393 kts 247°
2026-04-29 19:11 33.41596 -94.26450 37996 ft 398 kts 246°
2026-04-29 19:11 33.38672 -94.32120 37994 ft 401 kts 246°
2026-04-29 19:12 33.35726 -94.37774 37999 ft 400 kts 246°
2026-04-29 19:12 33.32792 -94.43421 37994 ft 400 kts 246°
2026-04-29 19:13 33.29862 -94.49074 37997 ft 400 kts 246°
2026-04-29 19:13 33.26931 -94.54725 37996 ft 400 kts 246°
2026-04-29 19:14 33.23999 -94.60369 37993 ft 400 kts 246°
2026-04-29 19:14 33.21042 -94.66052 37995 ft 400 kts 246°
2026-04-29 19:15 33.18099 -94.71697 38005 ft 400 kts 246°
2026-04-29 19:15 33.15159 -94.77329 38013 ft 400 kts 246°
2026-04-29 19:16 33.12200 -94.82995 38016 ft 404 kts 246°
2026-04-29 19:16 33.09222 -94.88683 38017 ft 404 kts 246°
2026-04-29 19:17 33.06240 -94.94365 38017 ft 404 kts 246°
2026-04-29 19:17 33.03266 -95.00055 38005 ft 405 kts 245°
2026-04-29 19:18 33.00283 -95.05723 38009 ft 407 kts 245°
2026-04-29 19:18 32.97270 -95.11424 38008 ft 407 kts 245°
2026-04-29 19:19 32.94256 -95.17125 38001 ft 407 kts 245°
2026-04-29 19:19 32.91241 -95.22828 38007 ft 407 kts 245°
2026-04-29 19:20 32.88225 -95.28526 38002 ft 407 kts 245°
2026-04-29 19:20 32.85209 -95.34214 38002 ft 407 kts 245°
2026-04-29 19:21 32.82199 -95.39881 37993 ft 403 kts 245°
2026-04-29 19:21 32.79205 -95.45508 37988 ft 402 kts 245°
2026-04-29 19:22 32.76212 -95.51131 37968 ft 402 kts 245°
2026-04-29 19:22 32.73217 -95.56751 37980 ft 403 kts 245°
2026-04-29 19:23 32.70214 -95.62372 37996 ft 403 kts 245°
2026-04-29 19:23 32.67212 -95.67982 38025 ft 403 kts 245°
2026-04-29 19:24 32.64207 -95.73592 38030 ft 402 kts 245°
2026-04-29 19:24 32.61711 -95.78242 38028 ft 402 kts 245°
2026-04-29 19:25 32.58712 -95.83823 38019 ft 401 kts 245°
2026-04-29 19:25 32.55710 -95.89405 38009 ft 401 kts 245°
2026-04-29 19:26 32.52710 -95.94973 38029 ft 401 kts 245°
2026-04-29 19:26 32.49457 -96.00405 38015 ft 412 kts 236°
2026-04-29 19:27 32.45348 -96.05250 38015 ft 416 kts 233°
2026-04-29 19:27 32.41160 -96.10002 38017 ft 417 kts 232°
2026-04-29 19:28 32.36961 -96.14748 38025 ft 418 kts 232°
2026-04-29 19:28 32.32756 -96.19493 38017 ft 418 kts 232°
2026-04-29 19:29 32.28548 -96.24234 38022 ft 418 kts 232°
2026-04-29 19:29 32.24339 -96.28970 38019 ft 418 kts 232°
2026-04-29 19:30 32.20152 -96.33677 37659 ft 418 kts 232°
2026-04-29 19:30 32.18046 -96.36040 37345 ft 418 kts 232°
2026-04-29 19:30 32.15936 -96.38409 37081 ft 419 kts 232°
2026-04-29 19:30 32.13820 -96.40783 36852 ft 421 kts 232°
2026-04-29 19:31 32.11698 -96.43161 36591 ft 421 kts 232°
2026-04-29 19:31 32.09540 -96.45577 36328 ft 422 kts 232°
2026-04-29 19:31 32.07410 -96.47960 36085 ft 422 kts 232°
2026-04-29 19:31 32.05281 -96.50340 35840 ft 422 kts 232°
2026-04-29 19:32 32.03152 -96.52719 35595 ft 422 kts 232°
2026-04-29 19:32 32.01019 -96.55100 35330 ft 421 kts 232°
2026-04-29 19:32 31.98896 -96.57467 34808 ft 420 kts 232°
2026-04-29 19:32 31.96766 -96.59844 34160 ft 422 kts 232°
2026-04-29 19:33 31.94631 -96.62226 33433 ft 424 kts 232°
2026-04-29 19:33 31.92484 -96.64617 32728 ft 425 kts 232°
2026-04-29 19:33 31.90339 -96.67005 32035 ft 425 kts 231°
2026-04-29 19:33 31.88212 -96.69370 31300 ft 426 kts 231°
2026-04-29 19:34 31.86031 -96.71794 30564 ft 427 kts 231°
2026-04-29 19:34 31.83863 -96.74203 29755 ft 429 kts 231°
2026-04-29 19:34 31.81689 -96.76617 28950 ft 430 kts 231°
2026-04-29 19:34 31.79531 -96.79006 28485 ft 423 kts 230°
2026-04-29 19:35 31.77405 -96.81356 27974 ft 417 kts 230°
2026-04-29 19:35 31.75307 -96.83678 27456 ft 412 kts 230°
2026-04-29 19:35 31.73234 -96.85972 26953 ft 407 kts 230°
2026-04-29 19:35 31.71181 -96.88243 26450 ft 403 kts 230°
2026-04-29 19:36 31.69152 -96.90488 25951 ft 399 kts 230°
2026-04-29 19:36 31.67143 -96.92708 25451 ft 395 kts 230°
2026-04-29 19:36 31.65150 -96.94909 24948 ft 391 kts 229°
2026-04-29 19:36 31.63172 -96.97093 24482 ft 388 kts 229°
2026-04-29 19:37 31.61191 -96.99279 23984 ft 385 kts 229°
2026-04-29 19:37 31.59899 -97.00703 23635 ft 383 kts 229°
2026-04-29 19:37 31.57320 -97.03546 22921 ft 379 kts 229°
2026-04-29 19:37 31.55398 -97.05657 22422 ft 375 kts 228°
2026-04-29 19:38 31.53337 -97.07599 21919 ft 378 kts 220°
2026-04-29 19:38 31.50989 -97.09035 21411 ft 384 kts 209°
2026-04-29 19:38 31.48474 -97.10102 20899 ft 384 kts 206°
2026-04-29 19:38 31.45944 -97.11082 20398 ft 382 kts 206°
2026-04-29 19:39 31.43428 -97.12048 19893 ft 379 kts 206°
2026-04-29 19:39 31.40929 -97.13013 19395 ft 377 kts 206°
2026-04-29 19:39 31.38458 -97.13970 19110 ft 368 kts 206°
2026-04-29 19:39 31.36076 -97.14889 19020 ft 353 kts 206°
2026-04-29 19:40 31.33784 -97.15778 18873 ft 341 kts 206°
2026-04-29 19:40 31.31563 -97.16643 18704 ft 332 kts 206°
2026-04-29 19:40 31.29403 -97.17486 18551 ft 322 kts 206°
2026-04-29 19:40 31.27268 -97.18326 18202 ft 330 kts 206°
2026-04-29 19:41 31.25057 -97.19202 17763 ft 340 kts 206°
2026-04-29 19:41 31.22807 -97.20084 17374 ft 341 kts 206°
2026-04-29 19:41 31.20562 -97.20958 16982 ft 339 kts 205°
2026-04-29 19:41 31.18329 -97.21826 16614 ft 338 kts 205°
2026-04-29 19:42 31.16097 -97.22695 16246 ft 337 kts 205°
2026-04-29 19:42 31.14622 -97.23269 15987 ft 337 kts 205°
2026-04-29 19:42 31.11652 -97.24425 15485 ft 336 kts 205°
2026-04-29 19:42 31.09465 -97.25276 15112 ft 335 kts 204°
2026-04-29 19:43 31.07256 -97.26135 14729 ft 335 kts 204°
2026-04-29 19:43 31.05045 -97.26994 14427 ft 334 kts 204°
2026-04-29 19:43 31.02842 -97.27851 14325 ft 335 kts 204°
2026-04-29 19:43 31.00644 -97.28704 14198 ft 329 kts 203°
2026-04-29 19:44 30.98504 -97.29531 14052 ft 319 kts 203°
2026-04-29 19:44 30.96433 -97.30331 13902 ft 309 kts 203°
2026-04-29 19:44 30.94422 -97.31110 13653 ft 302 kts 203°
2026-04-29 19:44 30.92442 -97.31880 13287 ft 298 kts 204°
2026-04-29 19:45 30.90482 -97.32648 12923 ft 296 kts 203°
2026-04-29 19:45 30.88520 -97.33419 12441 ft 298 kts 203°
2026-04-29 19:45 30.86561 -97.34187 12082 ft 295 kts 203°
2026-04-29 19:45 30.84627 -97.34943 11788 ft 292 kts 202°
2026-04-29 19:46 30.82710 -97.35693 11506 ft 290 kts 202°
2026-04-29 19:46 30.80839 -97.36534 11180 ft 287 kts 208°
2026-04-29 19:46 30.79040 -97.37524 10907 ft 285 kts 209°
2026-04-29 19:46 30.77261 -97.38540 10620 ft 284 kts 209°
2026-04-29 19:47 30.75490 -97.39556 10323 ft 283 kts 209°
2026-04-29 19:47 30.73730 -97.40565 10054 ft 282 kts 208°
2026-04-29 19:47 30.71976 -97.41566 9748 ft 279 kts 208°
2026-04-29 19:47 30.70241 -97.42553 9439 ft 276 kts 207°
2026-04-29 19:48 30.68516 -97.43537 9155 ft 276 kts 207°
2026-04-29 19:48 30.67373 -97.44189 8970 ft 277 kts 207°
2026-04-29 19:48 30.65059 -97.45508 8581 ft 277 kts 207°
2026-04-29 19:48 30.63329 -97.46493 8302 ft 277 kts 207°
2026-04-29 19:49 30.61596 -97.47479 8026 ft 277 kts 207°
2026-04-29 19:49 30.59864 -97.48464 7745 ft 278 kts 207°
2026-04-29 19:49 30.58129 -97.49450 7468 ft 278 kts 207°
2026-04-29 19:49 30.56393 -97.50436 7201 ft 277 kts 207°
2026-04-29 19:50 30.54662 -97.51419 7025 ft 277 kts 207°
2026-04-29 19:50 30.52929 -97.52403 6763 ft 277 kts 207°
2026-04-29 19:50 30.51175 -97.53398 6476 ft 277 kts 207°
2026-04-29 19:50 30.49440 -97.54382 6191 ft 278 kts 207°
2026-04-29 19:51 30.48108 -97.55137 5962 ft 275 kts 206°
2026-04-29 19:51 30.46402 -97.56105 5690 ft 272 kts 206°
2026-04-29 19:51 30.44715 -97.57065 5396 ft 268 kts 207°
2026-04-29 19:51 30.43197 -97.58271 5178 ft 262 kts 221°
2026-04-29 19:52 30.41868 -97.59737 4865 ft 257 kts 224°
2026-04-29 19:52 30.40637 -97.61185 4555 ft 246 kts 224°
2026-04-29 19:52 30.39453 -97.62588 4333 ft 234 kts 224°
2026-04-29 19:52 30.38312 -97.63871 4096 ft 226 kts 218°
2026-04-29 19:53 30.37084 -97.64941 3902 ft 217 kts 214°
2026-04-29 19:53 30.35816 -97.65952 3639 ft 214 kts 213°
2026-04-29 19:53 30.34572 -97.66929 3297 ft 212 kts 212°
2026-04-29 19:53 30.33327 -97.67828 2864 ft 212 kts 203°
2026-04-29 19:54 30.30458 -97.68220 2139 ft 198 kts 175°
2026-04-29 19:54 30.29134 -97.68144 1999 ft 179 kts 175°
2026-04-29 19:54 30.27944 -97.68113 1830 ft 162 kts 175°
2026-04-29 19:55 30.26861 -97.68087 1639 ft 151 kts 174°
2026-04-29 19:55 30.25818 -97.68056 1458 ft 149 kts 175°
2026-04-29 19:55 30.24769 -97.68027 1280 ft 148 kts 176°
2026-04-29 19:55 30.23747 -97.68000 1095 ft 147 kts 176°
2026-04-29 19:56 30.22708 -97.67972 862 ft 152 kts 176°
2026-04-29 19:56 30.21648 -97.67938 644 ft 153 kts 178°
2026-04-29 19:56 30.20599 -97.67916 533 ft 141 kts 178°
2026-04-29 19:56 30.19865 -97.67900 530 ft 72 kts 179°
2026-04-29 19:57 30.19489 -97.67857 531 ft 21 kts 160°
2026-04-29 19:57 30.19431 -97.67823 531 ft 12 kts 146°
2026-04-29 19:57 30.19393 -97.67722 531 ft 10 kts 91°
2026-04-29 19:57 30.19394 -97.67648 531 ft 9 kts 89°
2026-04-29 19:58 30.19395 -97.67580 531 ft 9 kts 88°
2026-04-29 19:58 30.19397 -97.67503 531 ft 10 kts 88°
2026-04-29 19:58 30.19399 -97.67422 531 ft 10 kts 88°
2026-04-29 19:58 30.19404 -97.67353 531 ft 7 kts 72°
2026-04-29 19:59 30.19437 -97.67325 531 ft 6 kts 14°
2026-04-29 19:59 30.19494 -97.67322 531 ft 10 kts 360°
2026-04-29 19:59 30.19579 -97.67325 531 ft 14 kts 358°
2026-04-29 19:59 30.19687 -97.67327 531 ft 15 kts 359°
2026-04-29 20:00 30.19771 -97.67328 531 ft 8 kts 359°
2026-04-29 20:00 30.19813 -97.67302 531 ft 8 kts 55°
2026-04-29 20:00 30.19822 -97.67227 531 ft 12 kts 88°
2026-04-29 20:00 30.19825 -97.67106 531 ft 18 kts 88°
2026-04-29 20:01 30.19828 -97.66944 531 ft 22 kts 88°
2026-04-29 20:01 30.19831 -97.66760 531 ft 22 kts 89°
2026-04-29 20:01 30.19834 -97.66599 531 ft 18 kts 88°
2026-04-29 20:01 30.19837 -97.66468 531 ft 13 kts 89°
2026-04-29 20:02 30.19859 -97.66396 531 ft 7 kts 36°
2026-04-29 20:02 30.19917 -97.66389 531 ft 12 kts 359°
2026-04-29 20:02 30.19991 -97.66390 531 ft 9 kts
2026-04-29 20:02 30.20021 -97.66368 531 ft 7 kts 51°
2026-04-29 20:03 30.20031 -97.66286 531 ft 10 kts 86°
2026-04-29 20:03 30.20035 -97.66191 531 ft 12 kts 88°
2026-04-29 20:03 30.20063 -97.66126 531 ft 7 kts 28°
2026-04-29 20:03 30.20103 -97.66120 531 ft 7 kts
2026-04-29 20:04 30.20162 -97.66120 531 ft 10 kts 358°
2026-04-29 20:04 30.20202 -97.66152 531 ft 5 kts 298°
2026-04-29 20:04 30.20214 -97.66184 531 ft 5 kts 294°
2026-04-29 20:04 30.20225 -97.66212 531 ft 2 kts 294°
2026-04-29 20:05 30.20228 -97.66219 531 ft 0 kts 294°